[{"header": {"dx": 0.06612293990616946, "dy": 0.0552356325346848, "nx": 98, "ny": 59, "la1": 35.046912555036876, "la2": 31.78801023549047, "lo1": -121.43107172385933, "lo2": -114.95102361305473, "refTime": "2026041122", "parameterCategory": 1, "parameterNumber": 2}, "data": [3.98, 3.98, 3.98, 3.98, 3.98, 3.98, 4.3, 4.3, 4.3, 4.3, 4.3, 4.77, 6.94, 8.0, 8.0, 8.0, 7.85, 7.81, 8.38, 6.79, 5.2, 3.79, 4.19, 7.63, 9.24, 9.75, 9.75, 10.41, 7.21, 1.79, -1.79, 1.9, 6.16, 8.14, 8.8, 9.36, 10.25, 8.9, 6.2, 4.34, 4.02, 4.82, 5.37, 5.21, 5.32, 4.92, 5.14, 6.0, 6.84, 6.7, 6.7, 6.45, 6.84, 6.24, 6.84, 7.36, 8.53, 8.22, 6.83, 5.76, 4.5, 4.5, 4.5, 4.5, 5.36, 6.04, 7.48, 7.78, 8.12, 9.26, 8.93, 10.04, 10.04, 10.0, 9.24, 8.17, 6.8, 6.79, 7.1, 6.64, 6.45, 6.6, 6.01, 4.2, 1.69, 1.45, 1.63, 1.7, 0.83, 0.8, 1.6, 2.37, 3.23, 4.1, 4.1, 4.1, 4.1, 3.25, 3.53, 3.53, 3.53, 3.97, 3.98, 3.98, 4.3, 4.3, 4.3, 4.3, 4.11, 6.45, 7.37, 7.42, 8.85, 8.85, 7.42, 8.38, 7.21, 5.75, 5.75, 5.36, 6.13, 8.0, 8.17, 8.72, 8.72, 8.4, 6.21, 1.26, -1.0, 1.74, 5.94, 7.12, 7.63, 8.06, 7.63, 6.28, 3.83, 3.35, 4.47, 5.37, 4.88, 4.4, 4.07, 4.92, 5.76, 6.57, 6.84, 7.64, 7.64, 7.64, 6.84, 6.2, 6.71, 7.36, 8.53, 8.22, 6.7, 5.9, 5.21, 4.34, 4.96, 5.76, 6.04, 5.9, 6.98, 7.36, 8.12, 9.26, 10.01, 10.66, 10.63, 10.32, 8.4, 6.21, 5.6, 6.79, 7.1, 6.64, 6.45, 6.6, 6.01, 4.2, 1.69, 1.45, 1.63, 1.7, 0.83, 0.8, 1.6, 2.37, 3.23, 4.1, 4.1, 4.1, 4.1, 3.25, 3.53, 3.53, 3.53, 3.53, 3.98, 3.98, 4.43, 4.3, 4.3, 4.11, 4.11, 4.4, 7.12, 8.06, 8.14, 8.29, 7.85, 7.42, 6.88, 6.23, 5.75, 6.52, 6.9, 7.44, 7.56, 7.15, 7.15, 6.79, 5.49, 1.74, 0.89, 2.24, 5.36, 7.15, 5.73, 5.6, 4.19, 3.07, 2.0, 3.13, 4.01, 4.0, 4.25, 4.25, 5.06, 5.06, 5.9, 6.98, 7.36, 7.64, 8.12, 7.78, 6.98, 6.98, 6.44, 7.78, 8.22, 7.48, 6.15, 5.9, 4.92, 4.92, 5.76, 6.0, 5.86, 5.86, 6.84, 7.36, 8.53, 9.34, 10.04, 10.63, 10.96, 9.9, 6.82, 4.89, 5.51, 6.64, 6.26, 5.81, 5.94, 6.18, 5.36, 2.49, 1.45, 1.45, 1.45, 1.7, 0.86, 0.8, 1.6, 2.37, 3.23, 4.1, 4.81, 4.81, 4.1, 3.25, 3.07, 3.07, 3.09, 3.53, 3.98, 3.98, 3.98, 3.87, 3.6, 3.6, 3.72, 4.27, 7.12, 8.14, 8.56, 8.14, 7.85, 6.94, 6.16, 6.16, 5.43, 5.72, 5.69, 5.77, 6.32, 6.95, 5.24, 5.37, 4.58, 2.6, 2.0, 2.95, 3.72, 5.03, 3.47, 2.84, 2.21, 1.6, 2.68, 2.8, 3.49, 4.07, 4.4, 5.06, 5.21, 5.21, 6.04, 6.7, 7.78, 8.53, 7.9, 7.59, 6.83, 5.9, 6.15, 6.98, 7.48, 6.7, 5.9, 5.29, 4.8, 5.72, 5.6, 6.43, 6.43, 6.56, 6.7, 7.44, 8.22, 9.57, 10.28, 10.23, 10.0, 8.24, 4.81, 3.58, 5.26, 4.47, 5.36, 4.47, 4.8, 6.11, 4.4, 1.69, 0.82, 1.7, 1.7, 0.83, 0.8, 1.6, 2.53, 2.53, 3.44, 4.1, 4.81, 4.81, 4.1, 3.34, 2.63, 3.07, 3.07, 3.58, 3.58, 3.53, 3.39, 3.2, 3.35, 3.35, 3.35, 3.88, 6.57, 8.06, 8.56, 8.06, 7.21, 6.16, 5.21, 4.74, 3.91, 3.91, 3.91, 4.14, 4.42, 5.59, 4.6, 4.0, 4.0, 2.67, 2.54, 2.69, 2.44, 2.69, 2.69, 2.54, 3.2, 4.74, 3.0, 2.57, 3.51, 4.25, 4.92, 5.52, 5.64, 5.76, 6.04, 7.59, 8.22, 8.64, 8.31, 6.83, 6.04, 5.29, 6.15, 6.7, 7.13, 6.31, 5.06, 4.25, 4.01, 5.6, 6.31, 6.52, 6.52, 6.52, 7.38, 7.51, 8.42, 9.96, 10.01, 10.04, 9.84, 7.82, 3.16, 2.0, 4.02, 2.53, 1.27, 3.6, 4.11, 4.34, 2.49, 0.89, -0.0, 0.82, 0.83, 0.86, 1.6, 1.6, 2.45, 3.23, 3.23, 3.96, 5.11, 4.1, 4.1, 3.34, 2.68, 3.13, 3.13, 3.13, 3.09, 3.09, 3.32, 2.79, 2.79, 2.84, 2.84, 3.78, 6.57, 8.29, 8.29, 7.37, 6.21, 4.74, 3.33, 2.67, 2.83, 3.4, 3.6, 2.54, 2.54, 2.82, 2.54, 2.83, 4.4, 3.87, 2.69, 1.84, 1.75, 1.84, 2.4, 2.54, 4.12, 5.53, 4.26, 2.69, 2.57, 3.92, 5.0, 6.45, 7.08, 7.48, 7.48, 7.9, 8.64, 8.31, 7.68, 6.53, 5.06, 5.06, 5.9, 6.83, 6.53, 5.21, 4.2, 3.25, 4.17, 4.93, 5.67, 5.73, 6.47, 7.32, 7.59, 7.79, 9.06, 9.89, 10.63, 10.66, 10.04, 7.58, 2.53, 1.34, 1.9, 1.27, 0.96, 3.22, 2.99, 2.59, 0.85, -0.0, -0.0, -0.0, 0.82, 1.64, 1.71, 2.53, 2.54, 3.34, 4.1, 4.21, 4.93, 4.21, 4.1, 3.34, 2.68, 2.63, 3.07, 3.07, 2.91, 2.91, 3.07, 2.53, 2.23, 2.23, 2.23, 3.48, 6.6, 7.12, 7.63, 5.21, 3.97, 2.99, 1.75, 2.31, 2.4, 2.51, 1.73, 1.84, 2.54, 1.25, 1.25, 2.54, 4.2, 3.8, 2.97, 1.75, 0.94, 0.89, 1.55, 2.4, 3.6, 5.46, 5.86, 3.6, 2.58, 2.49, 5.2, 7.24, 8.54, 8.12, 9.17, 8.85, 8.12, 8.53, 7.56, 5.9, 4.92, 5.29, 6.04, 6.64, 6.32, 4.26, 2.57, 3.51, 4.3, 4.06, 4.13, 4.91, 5.67, 7.4, 8.74, 8.99, 9.7, 10.92, 11.28, 11.26, 10.4, 8.21, 3.93, 1.9, 1.4, 1.19, 0.95, -0.0, 0.89, 0.85, 0.82, -0.0, -0.0, -0.0, 0.85, 1.63, 1.64, 2.53, 2.93, 3.53, 4.1, 4.81, 4.21, 3.23, 3.14, 3.25, 2.68, 3.07, 3.07, 2.91, 2.91, 2.68, 2.53, 2.53, 2.23, 1.84, 1.8, 2.22, 4.74, 5.06, 5.69, 3.33, 2.51, 1.75, 1.58, 2.54, 2.51, 1.72, 0.83, 0.89, 0.89, 1.4, 1.4, 2.99, 4.37, 4.14, 1.49, -0.0, -0.0, 1.25, 2.35, 3.11, 3.47, 4.58, 5.86, 5.21, 2.97, 2.58, 4.88, 7.59, 8.15, 8.22, 8.12, 9.06, 8.18, 8.23, 6.7, 6.0, 5.0, 5.76, 6.53, 6.32, 5.37, 2.67, 1.67, 2.59, 3.39, 3.32, 3.14, 3.17, 4.91, 7.32, 9.66, 10.65, 11.54, 12.27, 12.79, 12.45, 11.11, 8.29, 4.98, 1.98, 0.96, -0.0, -0.0, -0.0, 0.8, 0.77, 0.73, -0.0, -0.0, 0.83, 1.52, 1.69, 1.64, 2.37, 2.93, 2.93, 4.1, 4.24, 4.0, 3.25, 3.25, 4.24, 3.13, 3.07, 2.91, 2.91, 2.68, 2.68, 2.86, 2.53, 2.23, 2.23, 1.6, 1.13, 1.63, 3.2, 3.77, 3.17, 1.95, 0.89, 1.65, 1.95, 1.4, 1.32, 0.89, 1.01, 0.95, 1.4, 1.4, 2.82, 2.82, 3.0, -0.0, -0.0, -0.0, 1.4, 3.47, 4.11, 2.98, 2.8, 5.69, 5.86, 5.46, 5.46, 6.3, 7.27, 8.0, 7.02, 7.27, 8.51, 8.31, 8.05, 6.9, 5.72, 5.72, 6.84, 6.42, 5.89, 3.77, 1.84, 0.89, 2.49, 2.51, 2.53, 2.53, 2.45, 4.1, 7.49, 10.34, 12.57, 12.89, 13.35, 13.72, 12.33, 10.73, 6.26, 3.47, 1.19, -0.0, -0.0, -0.0, 1.5, 2.47, 1.65, 0.79, -0.0, -0.0, 0.78, 1.52, 1.76, 1.48, 2.99, 2.82, 2.93, 3.04, 3.25, 3.36, 3.25, 3.34, 4.36, 3.13, 3.07, 2.91, 2.91, 2.91, 2.91, 2.5, 2.53, 2.53, 2.23, 1.84, 1.13, 0.61, 1.8, 4.19, 2.82, 1.01, 1.01, 1.49, 1.49, 1.49, 1.58, 1.32, 1.32, 1.49, 1.4, 1.4, 1.49, 1.49, 1.63, 1.63, -0.0, -0.0, 2.49, 4.29, 3.76, 2.98, 2.76, 5.03, 6.95, 6.18, 6.95, 7.76, 8.43, 7.44, 6.32, 6.53, 6.57, 7.51, 7.38, 6.79, 6.31, 6.31, 5.8, 5.72, 5.0, 3.36, 1.68, 0.82, 1.7, 2.53, 2.37, 2.32, 3.19, 4.87, 7.64, 10.63, 12.33, 13.07, 13.23, 12.27, 10.28, 6.98, 3.35, 1.4, -0.78, -1.7, -0.83, 0.76, 2.15, 3.69, 3.88, 1.63, 0.88, 0.81, 0.83, 1.47, 1.45, 1.48, 2.19, 2.14, 2.14, 2.45, 2.54, 2.39, 3.34, 4.21, 5.06, 3.13, 3.07, 3.07, 3.07, 3.07, 2.91, 2.8, 2.5, 2.53, 2.53, 2.23, 1.84, 1.16, 1.61, 3.49, 2.6, 1.98, 1.27, 1.88, 2.5, 3.79, 3.49, 3.22, 4.19, 2.82, 1.32, -0.0, -0.0, 1.63, 3.0, 3.0, 1.98, 1.98, 2.8, 3.47, 3.91, 3.91, 4.14, 6.11, 7.41, 7.76, 8.43, 8.05, 8.54, 6.87, 5.1, 5.21, 5.64, 5.9, 5.14, 5.11, 5.73, 5.62, 4.81, 4.16, 4.16, 4.13, 2.51, 1.7, 1.64, 2.45, 3.23, 3.42, 4.13, 5.76, 8.53, 10.28, 10.66, 10.23, 8.8, 7.37, 5.29, 1.7, 0.0, 0.0, -1.6, -2.19, -0.0, 0.82, 2.6, 4.31, 5.18, 4.0, 1.72, 0.78, 0.79, 0.78, 1.45, 1.42, 2.19, 2.19, 2.44, 1.64, 1.64, 2.53, 3.32, 4.17, 5.0, 3.58, 3.13, 3.13, 3.07, 3.07, 3.07, 2.49, 2.8, 2.5, 2.21, 2.53, 2.23, 1.84, 1.84, 1.84, 1.84, 2.23, 2.21, 2.4, 3.07, 3.53, 3.82, 3.87, 6.4, 5.06, 3.0, 1.52, 1.13, 2.4, 3.47, 5.06, 3.72, 3.0, 2.8, 3.63, 4.29, 5.77, 6.11, 6.79, 7.81, 8.8, 8.4, 7.82, 7.44, 5.31, 3.45, 4.05, 3.77, 3.92, 3.92, 3.19, 3.96, 3.36, 3.13, 3.3, 3.95, 5.73, 5.0, 2.41, 1.64, 2.45, 4.06, 4.87, 4.0, 5.06, 7.25, 8.06, 8.18, 5.72, 2.47, -0.0, 0.0, 0.0, 0.0, -0.0, -0.82, -0.86, -0.0, 1.5, 3.11, 5.14, 5.76, 4.44, 2.69, 2.31, 1.52, 0.78, 1.45, 2.25, 2.25, 2.15, 2.21, 1.45, 0.82, 1.7, 3.29, 4.13, 4.13, 3.58, 3.58, 3.13, 3.13, 3.13, 3.07, 3.07, 2.49, 2.8, 2.5, 2.21, 2.53, 2.23, 2.23, 2.23, 2.53, 2.5, 2.4, 2.63, 2.68, 3.13, 3.58, 4.02, 4.02, 4.34, 4.11, 3.6, 3.07, 2.5, 2.8, 4.29, 4.74, 3.72, 3.47, 3.91, 4.43, 4.74, 6.11, 7.2, 7.82, 8.3, 7.42, 6.18, 4.16, 3.6, 2.58, 2.49, 3.61, 3.61, 2.39, 3.06, 2.23, 0.72, 0.73, 3.53, 5.92, 6.98, 5.72, 2.57, 1.63, 3.32, 4.87, 5.76, 4.03, 2.39, 3.2, 4.51, 5.73, 4.91, 3.3, -0.0, -2.0, 0.0, 2.2, 0.94, -0.0, 0.86, 1.69, 2.28, 3.88, 4.5, 5.29, 4.4, 3.29, 3.29, 2.51, 1.63, 1.45, 2.25, 2.95, 2.89, 2.21, 1.45, 0.82, 1.76, 2.49, 3.25, 3.39, 3.98, 3.58, 3.58, 3.58, 3.58, 3.13, 3.13, 3.07, 2.91, 2.8, 2.5, 2.5, 2.21, 2.53, 2.23, 2.79, 2.79, 3.39, 3.09, 3.13, 3.13, 3.13, 3.13, 3.58, 4.02, 4.02, 3.58, 3.13, 2.68, 2.24, 2.23, 3.63, 4.56, 4.74, 4.74, 4.29, 4.65, 6.11, 7.2, 7.76, 6.8, 5.49, 3.91, 4.0, 2.58, 2.39, 2.44, 2.7, 3.7, 3.52, 2.4, 1.18, -0.0, 1.25, 4.75, 6.07, 6.52, 4.44, 2.49, 1.69, 3.29, 6.08, 5.69, 2.33, -0.0, -0.0, 1.48, 3.04, 6.44, 7.4, 5.93, 3.16, 3.13, 3.63, 2.6, 2.44, 3.42, 3.53, 4.25, 5.06, 5.21, 5.21, 3.88, 3.11, 2.93, 3.46, 3.34, 3.32, 2.88, 2.95, 2.89, 2.31, 0.76, 0.79, 2.28, 2.39, 2.39, 2.59, 4.3, 3.98, 3.58, 3.58, 3.58, 3.58, 3.13, 3.07, 3.07, 2.91, 2.8, 2.5, 2.5, 2.21, 2.53, 3.14, 3.35, 3.7, 3.87, 3.39, 3.07, 2.68, 2.68, 3.13, 3.53, 3.53, 3.09, 2.68, 2.24, 1.34, 1.24, 2.48, 5.03, 5.37, 4.56, 4.14, 4.96, 6.11, 7.81, 6.21, 4.74, 3.8, 3.8, 2.46, 2.46, 2.58, 2.58, 3.7, 4.0, 3.6, 2.4, 1.32, 1.52, 4.74, 5.01, 4.65, 3.45, 2.97, 3.53, 3.68, 4.25, 5.92, 4.88, 2.17, -1.09, -1.2, -0.0, 3.6, 6.3, 8.72, 7.36, 5.8, 5.0, 5.06, 4.81, 5.11, 5.93, 5.86, 5.76, 6.31, 5.89, 5.1, 3.91, 2.9, 2.39, 3.34, 4.13, 4.24, 3.6, 3.32, 3.29, 2.15, 1.45, 1.5, 1.62, 1.68, 2.57, 2.57, 4.77, 3.98, 3.98, 3.53, 3.58, 3.58, 3.13, 3.13, 3.07, 3.07, 2.91, 2.68, 2.68, 2.53, 2.79, 3.35, 4.11, 4.11, 4.6, 4.11, 3.39, 2.6, 2.68, 3.13, 3.98, 3.82, 2.91, 2.4, 1.6, 1.2, 1.33, 2.4, 3.47, 5.37, 4.14, 4.03, 5.24, 6.11, 6.63, 5.37, 2.64, 2.83, 4.0, 2.58, 2.46, 2.46, 2.46, 4.0, 4.96, 4.37, 3.6, 3.68, 4.02, 5.36, 4.8, 4.09, 2.8, 2.4, 4.44, 6.24, 6.04, 5.98, 4.71, 2.09, -0.0, -1.16, 0.85, 3.52, 6.24, 6.3, 5.8, 6.9, 8.06, 8.43, 8.43, 8.43, 8.05, 8.42, 7.48, 7.68, 6.73, 5.24, 4.26, 3.63, 3.49, 3.25, 3.96, 4.24, 4.1, 3.96, 4.06, 2.31, 2.21, 2.21, 1.47, 2.31, 3.09, 3.09, 4.6, 4.34, 3.87, 3.98, 3.53, 3.58, 3.58, 3.13, 3.09, 3.07, 2.91, 3.07, 3.07, 2.79, 3.35, 4.11, 4.11, 4.27, 4.55, 4.4, 3.39, 2.17, 2.5, 3.82, 4.02, 3.07, 1.61, 1.26, 1.34, 1.4, 1.7, 2.32, 3.04, 4.14, 3.55, 4.03, 4.42, 4.14, 4.14, 4.14, 2.69, 2.67, 4.0, 2.83, 2.83, 2.83, 4.0, 5.21, 6.32, 5.31, 5.03, 5.03, 5.69, 6.28, 5.93, 5.06, 3.68, 3.91, 5.31, 7.56, 7.9, 6.32, 4.74, 2.6, -0.0, -0.89, -0.0, 2.4, 2.58, 3.68, 6.63, 8.46, 11.54, 12.16, 11.7, 12.09, 12.16, 10.92, 9.34, 7.68, 6.18, 5.21, 4.56, 3.78, 4.13, 3.29, 3.29, 3.34, 4.1, 5.11, 3.68, 3.02, 2.15, 2.31, 2.47, 2.99, 3.69, 3.69, 5.09, 4.6, 4.3, 3.87, 3.53, 3.53, 3.58, 3.58, 3.58, 3.09, 3.32, 3.07, 3.6, 3.35, 3.35, 4.11, 3.72, 4.07, 5.21, 5.09, 3.58, 1.49, 1.8, 3.48, 2.68, 1.2, 0.45, 0.95, 1.2, 1.7, 2.32, 2.8, 2.82, 3.08, 3.08, 3.72, 3.0, 4.29, 3.91, 4.14, 2.99, 2.69, 2.99, 4.37, 3.8, 4.96, 5.59, 6.64, 6.64, 6.98, 5.69, 5.69, 6.28, 6.28, 5.03, 5.03, 4.14, 5.03, 6.32, 7.21, 7.21, 6.63, 4.74, 2.8, -0.0, -0.0, -0.0, -0.0, 1.18, 3.91, 9.7, 12.15, 14.71, 15.19, 14.46, 13.89, 14.49, 13.26, 10.63, 7.9, 6.15, 5.14, 4.8, 4.48, 4.1, 3.34, 2.45, 3.23, 4.1, 4.81, 4.93, 4.17, 2.95, 3.02, 3.36, 3.63, 4.46, 4.46, 5.51, 5.09, 4.6, 4.3, 3.87, 3.53, 3.58, 3.58, 3.58, 3.39, 3.32, 3.2, 3.6, 3.35, 3.35, 4.98, 3.43, 4.07, 5.21, 5.09, 3.13, 0.54, 1.07, 2.82, 1.98, 1.98, 0.59, 1.98, 2.82, 2.32, 2.8, 2.82, 3.08, 2.84, 2.84, 2.86, 2.86, 3.15, 4.43, 4.56, 4.29, 3.97, 5.37, 5.03, 5.31, 6.32, 6.98, 7.44, 7.44, 6.98, 6.01, 5.31, 5.31, 5.59, 4.96, 5.21, 4.96, 5.21, 6.3, 7.56, 7.44, 6.28, 5.06, 1.72, 0.84, 0.84, 0.83, 0.88, 2.0, 5.2, 10.41, 13.72, 16.76, 17.68, 16.76, 15.56, 14.64, 13.11, 10.66, 7.78, 5.86, 5.0, 5.0, 4.48, 4.1, 4.1, 3.32, 3.61, 4.06, 5.1, 4.93, 4.75, 4.01, 3.85, 3.25, 4.2, 4.83, 4.83, 5.81, 5.51, 4.6, 4.11, 3.87, 3.97, 3.53, 3.58, 3.58, 3.39, 3.39, 3.2, 3.6, 3.35, 3.35, 3.72, 3.88, 4.0, 5.58, 5.58, 4.29, 1.76, 1.7, 1.84, 1.84, 2.82, 2.67, 2.32, 2.8, 3.47, 3.22, 3.49, 3.22, 3.12, 2.86, 2.86, 3.15, 2.86, 3.48, 4.37, 4.07, 4.65, 4.65, 4.65, 5.21, 8.0, 8.0, 8.0, 7.44, 6.63, 5.31, 4.96, 5.21, 4.66, 4.34, 5.21, 4.88, 4.71, 6.01, 8.18, 6.63, 5.37, 3.91, 1.32, 0.89, 2.54, 2.67, 3.33, 4.11, 6.51, 9.7, 13.76, 16.91, 18.7, 17.88, 16.09, 13.86, 11.14, 6.83, 6.84, 6.84, 6.0, 5.63, 5.06, 4.75, 4.32, 4.5, 4.6, 4.5, 5.3, 4.87, 5.06, 4.87, 4.3, 3.69, 5.06, 6.14, 6.14, 5.81, 5.4, 5.09, 4.6, 4.11, 3.87, 3.54, 3.58, 3.58, 3.53, 3.39, 3.2, 3.6, 3.35, 3.72, 3.88, 3.88, 3.88, 4.27, 5.58, 5.49, 3.83, 3.78, 3.15, 2.48, 2.44, 2.84, 3.08, 3.49, 3.49, 3.49, 3.49, 3.49, 3.12, 2.86, 2.44, 2.86, 2.86, 3.48, 4.07, 4.07, 4.07, 4.55, 4.93, 4.93, 7.28, 7.6, 8.0, 7.6, 5.69, 4.37, 4.0, 3.7, 3.7, 5.1, 4.83, 5.64, 5.38, 6.64, 6.63, 5.69, 5.03, 2.69, 2.46, 2.54, 3.6, 3.6, 4.26, 5.59, 7.15, 9.77, 13.18, 15.18, 15.62, 14.09, 11.61, 5.59, 4.98, 4.68, 6.04, 6.98, 6.84, 6.56, 5.29, 5.11, 4.93, 5.06, 4.4, 4.68, 4.31, 5.0, 4.87, 5.51, 5.09, 4.5, 5.21, 6.68, 6.68, 6.3, 5.81, 5.31, 5.09, 4.6, 4.3, 3.98, 3.58, 3.58, 3.53, 3.39, 3.6, 3.6, 3.35, 3.88, 3.88, 3.88, 4.52, 4.19, 4.6, 5.31, 5.47, 5.47, 4.55, 4.27, 3.43, 2.86, 2.86, 3.12, 2.84, 3.22, 3.49, 3.49, 2.86, 2.86, 2.44, 2.44, 3.12, 3.49, 3.49, 4.11, 4.41, 4.41, 4.65, 4.65, 5.21, 8.0, 7.6, 6.9, 4.14, 3.8, 4.0, 4.0, 3.7, 3.87, 5.1, 5.14, 5.76, 6.3, 5.03, 3.97, 3.4, 2.54, 2.69, 3.45, 3.63, 3.63, 3.32, 5.06, 6.5, 8.85, 12.09, 11.26, 7.85, 1.4, 0.0, 1.9, 2.98, 3.48, 4.81, 6.18, 6.97, 6.52, 5.62, 5.62, 5.73, 5.86, 5.67, 5.1, 4.5, 4.5, 5.86, 6.62, 5.95, 5.38, 6.06, 7.2, 7.2, 6.51, 6.51, 6.3, 5.31, 5.02, 4.34, 3.98, 4.02, 4.02, 3.53, 3.82, 3.6, 4.0, 3.88, 3.88, 3.88, 4.4, 4.6, 4.6, 4.6, 5.09, 5.09, 5.51, 5.31, 5.31, 4.8, 4.0, 3.48, 2.86, 3.12, 3.49, 3.49, 3.48, 3.15, 2.86, 2.2, 2.4, 2.4, 3.08, 3.49, 3.83, 4.11, 4.11, 4.65, 4.65, 5.21, 7.6, 6.9, 5.69, 4.14, 3.8, 4.0, 4.0, 4.0, 3.7, 3.87, 4.25, 5.63, 6.5, 4.26, 3.4, 2.69, 2.57, 2.7, 3.49, 3.36, 3.51, 3.32, 4.2, 4.2, 5.92, 7.51, 10.28, 6.64, 2.2, 2.98, 4.15, 4.15, 3.47, 3.47, 4.46, 5.14, 5.02, 4.81, 5.79, 6.47, 6.6, 6.52, 6.79, 6.7, 5.09, 6.2, 6.71, 6.79, 6.64, 6.7, 6.7, 6.7, 6.6, 6.6, 6.1, 6.3, 5.09, 4.77, 4.44, 4.47, 4.02, 3.98, 3.87, 4.11, 4.11, 3.88, 4.27, 4.4, 4.4, 4.4, 5.02, 5.09, 5.09, 5.09, 5.09, 5.09, 5.31, 5.31, 4.9, 4.0, 3.48, 3.49, 3.49, 3.2, 3.48, 3.15, 2.86, 2.18, 2.36, 2.36, 2.82, 3.49, 3.49, 3.83, 4.11, 4.65, 4.65, 4.93, 7.6, 7.28, 6.63, 5.31, 4.37, 4.37, 3.8, 2.69, 2.83, 4.2, 3.45, 4.2, 5.54, 5.32, 2.69, 2.69, 2.57, 3.49, 3.36, 3.51, 3.51, 5.0, 4.2, 4.34, 5.1, 13.02, 16.46, 14.17, 11.21, 9.63, 9.03, 7.01, 4.4, 2.98, 3.58, 3.61, 3.73, 4.24, 5.55, 7.13, 7.49, 7.38, 8.3, 8.01, 6.57, 6.79, 7.22, 7.27, 6.95, 6.68, 7.06, 7.06, 7.01, 7.01, 6.6, 6.3, 5.81, 5.57, 4.8, 4.88, 4.47, 4.44, 4.3, 4.3, 4.6, 4.6, 4.4, 4.4, 4.8, 4.8, 4.9, 5.09, 5.09, 5.09, 5.09, 5.09, 5.09, 5.57, 5.57, 5.31, 4.55, 4.07, 3.79, 3.48, 3.48, 3.48, 2.84, 2.36, 2.32, 2.32, 3.04, 3.47, 3.76, 4.12, 4.12, 4.71, 4.65, 5.08, 5.99, 6.79, 6.72, 5.6, 4.07, 5.03, 4.14, 2.69, 2.69, 3.8, 3.8, 2.51, 2.83, 3.87, 3.87, 3.6, 3.45, 3.32, 3.49, 3.36, 4.25, 4.25, 5.29, 5.53, 7.2, 10.85, 16.44, 15.43, 13.19, 10.55, 7.89, 5.36, 2.4, 2.53, 3.48, 2.97, 2.99, 4.24, 6.65, 7.38, 8.3, 7.51, 8.42, 8.46, 9.17, 7.52, 7.59, 7.27, 6.95, 7.02, 6.64, 6.64, 6.8, 6.8, 7.01, 6.6, 6.3, 5.81, 5.57, 4.89, 4.92, 4.92, 4.88, 4.77, 4.6, 5.02, 4.8, 4.8, 4.8, 4.9, 4.9, 5.31, 5.31, 5.51, 5.51, 5.09, 5.09, 5.57, 5.57, 5.99, 5.57, 4.69, 4.29, 4.07, 3.48, 2.86, 2.82, 2.8, 2.8, 2.8, 3.04, 3.47, 3.47, 4.12, 4.12, 4.71, 5.21, 5.81, 6.16, 6.6, 6.16, 5.24, 3.43, 2.84, 2.54, 2.69, 2.69, 3.8, 4.14, 2.66, 1.25, 2.69, 5.59, 4.96, 3.4, 3.45, 3.32, 3.65, 4.07, 4.25, 6.04, 6.32, 6.79, 10.4, 12.79, 15.5, 14.86, 12.26, 7.68, 4.38, 2.8, 3.82, 2.82, 2.28, 2.95, 4.32, 7.19, 8.45, 8.59, 8.01, 8.42, 8.16, 8.76, 8.16, 7.9, 7.27, 6.88, 7.68, 7.31, 7.31, 7.31, 7.31, 7.01, 7.01, 6.72, 6.3, 5.99, 5.7, 5.36, 5.36, 4.89, 5.24, 5.09, 5.09, 4.9, 5.31, 5.31, 5.31, 5.31, 5.31, 5.31, 5.31, 5.51, 5.51, 5.51, 5.57, 5.99, 6.16, 6.04, 5.81, 5.08, 5.4, 4.55, 3.49, 2.32, 2.8, 2.8, 3.47, 3.47, 3.47, 3.47, 3.47, 4.12, 5.29, 5.75, 6.3, 6.47, 6.23, 4.89, 3.6, 2.86, 2.36, 1.84, 1.84, 2.82, 3.77, 4.14, 2.82, 1.84, 2.64, 5.03, 4.16, 4.37, 3.27, 3.87, 3.63, 4.34, 5.36, 5.89, 7.15, 7.82, 8.4, 10.63, 12.89, 14.15, 13.74, 10.58, 7.03, 4.98, 4.58, 4.34, 4.07, 3.61, 5.2, 7.28, 8.73, 9.06, 9.17, 8.85, 8.42, 8.09, 9.1, 8.42, 8.22, 7.59, 7.96, 7.95, 7.95, 7.71, 7.71, 7.31, 7.01, 6.79, 6.3, 6.47, 6.16, 5.7, 5.81, 5.34, 5.26, 5.09, 5.51, 5.31, 5.31, 5.31, 5.31, 5.31, 5.31, 5.31, 5.31, 5.31, 5.57, 5.57, 5.57, 5.99, 6.04, 6.04, 6.47, 6.47, 6.47, 5.08, 3.49, 2.32, 2.8, 3.47, 3.47, 3.47, 3.47, 3.47, 3.47, 4.12, 5.01, 5.29, 5.86, 5.6, 5.24, 3.6, 2.84, 2.36, 2.32, 2.36, 1.7, 1.88, 2.64, 3.91, 2.82, 1.96, 2.64, 4.29, 4.16, 3.55, 3.45, 4.12, 5.46, 5.24, 6.11, 6.82, 7.42, 7.82, 8.21, 8.8, 9.65, 11.66, 14.26, 14.85, 12.62, 9.43, 7.41, 7.06, 4.69, 5.29, 6.53, 8.16, 9.21, 9.21, 9.26, 8.85, 8.3, 8.76, 9.48, 9.48, 8.53, 8.93, 8.58, 8.3, 8.3, 7.71, 7.71, 7.31, 7.51, 7.26, 6.79, 6.94, 6.47, 6.16, 6.23, 5.81, 5.78, 5.7, 5.57, 5.57, 5.81, 5.81, 5.4, 5.31, 5.31, 5.31, 5.51, 5.51, 5.57, 5.57, 5.99, 6.04, 6.04, 6.47, 6.47, 7.06, 6.61, 5.81, 4.11, 2.8, 2.8, 3.47, 3.84, 3.84, 3.47, 3.47, 3.47, 3.84, 5.24, 5.53, 5.35, 5.21, 3.48, 2.82, 2.18, 2.8, 3.04, 2.82, 2.4, 2.2, 1.94, 2.66, 2.82, 2.64, 2.64, 3.55, 4.16, 4.42, 4.5, 5.36, 6.32, 6.11, 5.82, 6.21, 6.21, 6.11, 7.76, 9.42, 9.97, 11.05, 13.31, 15.13, 15.24, 13.19, 10.43, 8.12, 6.35, 6.97, 8.24, 10.19, 10.15, 8.93, 8.64, 8.42, 9.17, 9.56, 9.96, 10.19, 9.56, 9.57, 9.52, 8.88, 8.88, 7.6, 7.6, 7.71, 7.51, 7.51, 7.26, 7.4, 6.94, 6.61, 6.68, 6.71, 6.23, 6.16, 5.99, 5.99, 5.99, 5.99, 5.99, 5.57, 5.31, 5.51, 5.51, 5.51, 5.51, 5.57, 5.57, 5.99, 6.04, 6.47, 6.61, 7.06, 6.68, 5.99, 4.37, 3.47, 3.47, 3.47, 4.12, 4.12, 3.84, 3.47, 3.47, 3.76, 4.12, 4.74, 6.45, 5.69, 3.47, 3.45, 3.72, 3.76, 2.84, 2.84, 2.4, 2.44, 1.76, 1.76, 2.22, 2.8, 2.8, 3.72, 4.16, 5.24, 5.24, 6.73, 6.39, 5.69, 6.28, 4.54, 3.79, 3.33, 6.95, 10.66, 12.45, 12.07, 12.04, 12.96, 13.01, 13.19, 11.9, 10.28, 8.22, 9.13, 10.3, 10.83, 11.04, 9.3, 8.27, 8.57, 9.21, 9.57, 10.29, 10.53, 10.66, 10.15, 9.52, 8.88, 8.88, 8.0, 8.0, 7.81, 8.0, 7.51, 7.69, 7.4, 7.4, 7.07, 7.13, 7.15, 6.71, 6.16, 6.04, 6.04, 6.47, 6.04, 5.99, 5.4, 5.4, 5.31, 5.4, 5.57, 5.57, 5.57, 5.57, 5.99, 6.04, 6.47, 6.61, 6.61, 6.16, 5.81, 4.71, 4.12, 3.49, 3.49, 4.12, 4.12, 4.12, 4.12, 3.76, 3.76, 3.83, 4.11, 6.18, 6.11, 4.75, 4.74, 4.43, 3.49, 2.86, 2.86, 2.44, 2.44, 2.22, 2.48, 2.23, 2.23, 3.63, 3.47, 4.58, 6.11, 6.79, 6.79, 5.77, 4.95, 4.46, 3.68, 2.8, 2.8, 4.26, 9.34, 14.22, 14.64, 11.62, 9.83, 9.49, 10.66, 12.89, 12.78, 11.8, 10.51, 11.47, 11.31, 10.27, 8.65, 8.9, 9.57, 9.92, 9.78, 10.09, 10.09, 10.09, 10.09, 9.84, 8.4, 8.4, 8.0, 8.0, 8.22, 7.81, 8.0, 7.74, 7.74, 7.84, 7.51, 7.58, 7.15, 7.15, 6.68, 6.6, 6.6, 6.47, 6.47, 5.81, 5.81, 5.81, 5.81, 5.81, 5.81, 5.57, 5.57, 5.57, 5.57, 5.99, 7.85, 6.04, 5.99, 5.81, 5.6, 5.21, 4.71, 4.11, 3.83, 3.83, 4.12, 4.12, 4.12, 4.12, 4.12, 4.12, 4.37, 4.84, 5.21, 5.21, 4.65, 4.07, 3.48, 3.15, 2.48, 2.48, 2.86, 2.86, 2.86, 2.84, 2.84, 2.86, 4.43, 5.06, 6.82, 6.44, 6.79, 5.43, 3.47, 3.68, 4.75, 4.02, 2.8, 4.29, 7.81, 13.34, 17.26, 15.56, 10.14, 8.3, 10.04, 12.64, 13.85, 13.29, 12.54, 11.12, 10.21, 9.21, 8.78, 9.42, 11.03, 10.48, 10.4, 9.84, 9.45, 9.84, 10.0, 9.34, 8.14, 8.14, 8.0, 8.0, 8.0, 8.22, 8.0, 8.0, 7.74, 7.87, 7.97, 7.58, 7.6, 7.15, 7.13, 6.68, 6.61, 6.47, 6.3, 6.3, 6.3, 5.88, 5.81, 5.81, 5.81, 5.81, 5.99, 5.99, 5.57, 5.99, 6.04, 7.63, 5.81, 5.6, 6.0, 6.0, 5.6, 4.37, 3.83, 3.83, 4.12, 4.43, 4.12, 3.84, 3.84, 4.43, 4.94, 5.47, 5.31, 4.9, 4.0, 3.16, 2.86, 2.86, 2.86, 2.86, 2.86, 3.15, 3.48, 3.16, 3.16, 3.15, 3.49, 6.11, 6.64, 6.11, 6.01, 5.24, 4.29, 2.6, 4.02, 5.06, 4.74, 5.21, 6.16, 10.68, 17.47, 19.15, 14.58, 10.96, 11.21, 12.72, 13.64, 13.15, 11.72, 10.68, 8.55, 8.78, 9.76, 10.87, 11.88, 11.2, 10.55, 9.34, 8.8, 8.8, 8.8, 8.55, 7.73, 7.73, 7.76, 7.76, 8.0, 8.22, 7.81, 8.0, 8.17, 7.87, 7.87, 7.51, 7.58, 7.15, 7.15, 7.13, 6.51, 6.51, 6.3, 6.3, 6.3, 6.3, 6.3, 5.88, 5.88, 5.81, 6.04, 5.99, 5.99, 5.99, 5.99, 6.04, 6.3, 6.3, 6.3, 6.3, 6.23, 5.21, 4.11, 3.83, 3.83, 4.43, 4.43, 3.84, 4.12, 4.74, 5.29, 5.6, 5.08, 4.0, 3.78, 2.86, 2.86, 2.86, 3.12, 3.12, 3.49, 3.2, 3.79, 3.79, 3.48, 3.2, 5.31, 5.31, 6.32, 6.64, 5.53, 5.53, 4.42, 3.72, 3.76, 4.74, 5.15, 5.6, 6.58, 9.68, 15.13, 18.45, 17.42, 14.39, 12.87, 12.33, 11.98, 10.8, 10.27, 9.19, 9.57, 9.71, 10.87, 11.61, 12.39, 11.34, 10.15, 9.36, 8.14, 8.14, 7.6, 7.85, 7.73, 7.73, 8.15, 8.15, 8.0, 8.22, 7.81, 8.0, 8.17, 7.74, 7.87, 7.52, 7.58, 7.15, 7.15, 7.13, 7.07, 6.94, 6.79, 6.79, 6.79, 6.3, 6.3, 6.3, 6.3, 6.47, 6.04, 6.04, 6.04, 6.04, 5.99, 6.04, 6.04, 6.04, 6.04, 6.47, 6.3, 5.47, 4.37, 3.83, 3.83, 4.12, 4.43, 3.84, 4.45, 5.01, 5.49, 5.21, 4.65, 4.07, 3.48, 2.86, 2.84, 3.49, 3.49, 3.49, 3.49, 3.78, 4.11, 4.11, 4.11, 4.12, 3.47, 4.96, 6.32, 6.64, 6.64, 6.32, 5.37, 4.74, 4.43, 5.15, 5.09, 6.13, 7.06, 9.49, 12.8, 15.76, 17.47, 17.08, 14.39, 11.79, 9.54, 8.67, 8.93, 9.57, 10.19, 10.41, 11.22, 12.39, 12.15, 11.75, 10.55, 9.08, 8.3, 6.94, 6.0, 6.54, 7.98, 7.98, 8.15, 8.15, 8.0, 8.0, 7.81, 8.0, 8.17, 7.74, 7.87, 7.97, 7.58, 7.6, 7.15, 7.58, 7.13, 7.06, 6.94, 6.94, 6.94, 6.51, 6.47, 6.47, 6.47, 6.47, 6.47, 6.04, 6.04, 6.04, 6.04, 6.04, 6.04, 6.04, 6.04, 6.04, 6.04, 5.6, 4.65, 4.11, 3.83, 3.83, 4.12, 4.12, 4.45, 5.29, 4.94, 4.94, 4.37, 4.07, 3.49, 3.08, 3.47, 3.47, 3.84, 4.12, 4.12, 3.83, 4.11, 4.43, 4.12, 3.84, 3.72, 4.12, 6.32, 6.11, 6.79, 7.81, 5.49, 5.15, 5.15, 5.15, 5.93, 5.77, 7.76, 9.66, 11.18, 12.56, 14.49, 16.11, 16.49, 13.93, 11.04, 9.52, 9.56, 10.53, 11.12, 11.69, 12.23, 11.83, 11.75, 11.34, 10.4, 9.49, 7.76, 5.82, 5.05, 6.28, 7.47, 7.47, 8.15, 8.15, 8.0, 8.0, 7.81, 8.0, 8.0, 7.74, 7.87, 7.97, 7.58, 7.6, 7.6, 7.6, 7.13, 7.07, 7.06, 7.06, 6.94, 6.51, 6.51, 6.51, 6.51, 6.47, 6.47, 6.47, 6.04, 6.04, 6.04, 6.04, 6.04, 6.04, 6.04, 6.04, 6.04, 5.81, 4.65, 4.11, 3.49, 4.11, 4.11, 4.12, 4.74, 6.11, 4.43, 4.71, 4.71, 4.11, 3.47, 3.45, 3.72, 3.84, 4.12, 4.12, 4.12, 4.11, 4.71, 4.71, 4.12, 4.12, 3.45, 3.68, 6.32, 6.11, 6.79, 7.44, 5.49, 5.06, 5.06, 5.06, 4.95, 6.01, 8.54, 10.18, 9.97, 9.75, 11.02, 13.83, 16.95, 16.65, 13.98, 11.79, 11.16, 11.12, 11.69, 12.08, 12.54, 12.29, 11.75, 11.2, 10.4, 9.6, 7.07, 5.15, 4.84, 6.28, 7.47, 7.71, 8.15, 8.15, 8.0, 7.6, 7.81, 8.0, 8.0, 7.74, 7.87, 7.97, 7.58, 7.58, 7.6, 7.6, 7.13, 7.13, 7.13, 7.06, 7.06, 7.06, 6.61, 6.51, 6.51, 6.51, 6.47, 6.47, 6.47, 6.04, 6.04, 6.04, 6.04, 6.04, 6.04, 6.04, 6.47, 6.04, 5.08, 3.79, 3.78, 4.11, 4.11, 4.11, 3.83, 5.24, 5.01, 5.29, 4.71, 3.47, 3.45, 3.85, 4.12, 4.12, 4.12, 4.71, 4.37, 4.11, 4.37, 4.71, 4.12, 3.84, 3.72, 3.45, 6.01, 6.11, 6.11, 6.98, 6.01, 5.24, 5.24, 4.83, 4.26, 5.72, 8.54, 9.9, 10.85, 9.49, 9.68, 12.41, 14.56, 15.34, 14.18, 13.39, 12.97, 11.94, 12.08, 12.25, 12.54, 12.29, 11.34, 10.8, 10.63, 9.3, 7.02, 5.77, 5.82, 6.54, 7.98, 7.47, 8.0, 8.0, 8.0, 7.81, 7.81, 8.0, 8.17, 7.74, 7.87, 7.97, 7.97, 7.58, 7.6, 7.15, 7.15, 7.13, 7.13, 7.13, 7.06, 7.06, 7.06, 7.06, 7.06, 6.51, 6.51, 6.47, 6.47, 6.47, 6.04, 6.04, 6.04, 6.04, 6.04, 6.04, 6.47, 6.47, 5.31, 4.07, 3.49, 3.49, 4.11, 4.11, 3.79, 4.11, 6.11, 5.29, 4.43, 4.12, 4.12, 4.45, 4.43, 4.43, 4.71, 4.71, 4.65, 4.65, 4.65, 4.71, 4.12, 4.12, 3.47, 3.45, 4.12, 6.32, 6.32, 6.32, 5.53, 6.01, 5.1, 5.1, 4.83, 5.69, 7.44, 9.1, 10.79, 10.63, 10.18, 10.6, 12.09, 12.54, 13.54, 14.31, 13.85, 12.79, 12.54, 12.54, 12.4, 12.29, 11.2, 10.63, 9.9, 9.3, 7.68, 6.79, 6.44, 7.35, 7.85, 7.98, 8.0, 8.0, 8.0, 7.81, 7.81, 8.0, 7.74, 7.74, 7.87, 7.87, 7.97, 7.58, 7.6, 7.6, 7.15, 7.15, 7.6, 7.13, 7.07, 7.07, 7.06, 7.06, 7.06, 7.06, 6.61, 6.51, 6.51, 6.47, 6.47, 6.04, 6.04, 6.04, 6.04, 6.04, 6.61, 6.61, 5.57, 4.55, 3.49, 3.49, 3.79, 4.07, 4.07, 4.07, 4.65, 6.11, 4.74, 4.74, 4.74, 4.71, 4.71, 4.71, 4.71, 5.21, 5.21, 4.65, 4.65, 4.11, 4.11, 3.83, 3.76, 3.47, 4.96, 5.31, 5.59, 6.64, 6.01, 6.01, 4.26, 5.1, 5.1, 5.37, 5.93, 6.87, 9.08, 12.22, 12.89, 12.23, 11.6, 11.66, 13.02, 15.14, 14.79, 13.48, 12.4, 12.22, 12.14, 11.2, 10.8, 10.63, 9.65, 8.67, 7.67, 7.42, 7.42, 7.41, 8.03, 8.03, 8.0, 8.0, 8.0, 7.81, 8.0, 8.0, 8.17, 7.74, 7.87, 7.87, 7.97, 7.58, 7.58, 7.6, 7.6, 7.6, 7.6, 7.58, 7.58, 7.07, 7.07, 7.07, 7.06, 7.06, 6.61, 6.61, 6.61, 6.51, 6.47, 6.47, 6.04, 6.04, 6.04, 6.47, 6.61, 6.61, 6.16, 4.9, 4.07, 3.49, 3.49, 4.07, 4.07, 4.07, 4.55, 5.21, 5.29, 5.29, 5.21, 5.01, 4.65, 4.65, 5.21, 5.21, 5.21, 4.94, 4.65, 4.11, 4.11, 4.11, 3.49, 3.49, 3.49, 5.31, 5.31, 6.32, 6.64, 6.32, 4.83, 5.1, 5.69, 5.06, 5.93, 5.69, 7.81, 10.59, 13.88, 15.5, 13.23, 12.22, 13.05, 15.2, 15.7, 14.27, 12.4, 11.5, 11.09, 10.63, 10.8, 10.23, 9.6, 8.63, 7.42, 6.79, 7.27, 7.9, 7.9, 7.9, 8.0, 8.0, 8.22, 7.81, 8.0, 8.0, 8.17, 7.74, 7.87, 7.87, 7.97, 7.58, 7.58, 7.6, 7.6, 7.6, 7.6, 7.6, 7.58, 7.58, 7.58, 7.13, 7.13, 7.06, 7.06, 6.61, 6.61, 6.61, 6.6, 6.47, 6.6, 6.6, 6.6, 6.61, 6.61, 6.61, 6.16, 5.57, 4.55, 3.79, 3.49, 4.07, 4.07, 4.29, 4.65, 4.84, 5.21, 5.21, 5.21, 5.21, 4.65, 4.65, 5.21, 5.21, 5.29, 4.94, 4.71, 4.37, 4.11, 4.11, 3.78, 3.22, 3.08, 4.14, 5.31, 6.32, 6.64, 6.01, 5.53, 6.01, 5.77, 5.06, 5.37, 6.39, 7.44, 9.05, 11.28, 13.88, 14.2, 12.78, 13.85, 15.28, 16.8, 15.53, 12.79, 10.94, 10.23, 10.23, 10.55, 10.15, 9.2, 8.05, 7.07, 6.53, 7.18, 7.9, 7.9, 7.9, 8.0, 8.0, 8.22, 7.81, 8.0, 8.0, 8.0, 7.74, 7.74, 7.87, 7.97, 7.97, 7.58, 7.58, 7.6, 7.6, 7.6, 7.6, 7.6, 7.58, 7.58, 7.58, 7.58, 7.07, 7.06, 7.06, 6.61, 6.61, 6.61, 6.61, 6.6, 6.61, 6.61, 6.61, 6.61, 6.61, 6.6, 6.16, 4.9, 4.37, 4.07, 3.79, 4.65, 4.65, 4.65, 4.84, 5.21, 5.21, 5.21, 5.21, 5.01, 5.21, 5.21, 5.21, 4.94, 5.29, 4.94, 4.37, 4.11, 4.11, 4.11, 3.49, 3.12, 3.08, 5.59, 6.32, 6.98, 6.11, 6.01, 5.69, 5.69, 4.95, 5.24, 6.79, 7.44, 8.43, 9.65, 11.64, 12.62, 12.5, 13.8, 15.29, 16.85, 16.42, 14.18, 12.25, 10.4, 10.15, 9.49, 8.63, 9.48, 7.02, 6.64, 6.83, 8.31, 7.97, 7.97, 7.97, 8.0, 8.0, 8.0, 8.22, 7.81, 8.0, 8.0, 7.74, 7.74, 7.87, 7.97, 7.97, 7.58, 7.58, 7.6, 7.6, 7.6, 7.6, 7.6, 7.58, 7.58, 7.58, 7.58, 7.51, 7.06, 7.06, 7.06, 6.61, 6.61, 6.61, 6.61, 7.06, 7.13, 6.61, 6.61, 6.61, 6.68, 6.16, 5.57, 4.8, 4.07, 4.11, 4.65, 4.65, 4.84, 5.08, 5.47, 5.21, 5.21, 5.21, 5.21, 5.21, 5.21, 5.21, 4.94, 5.29, 5.29, 4.71, 4.37, 4.11, 4.11, 3.49, 3.12, 3.08, 3.47, 6.32, 6.98, 5.37, 5.24, 5.24, 5.24, 5.59, 6.01, 6.79, 7.44, 8.05, 9.6, 10.63, 10.66, 10.92, 12.84, 15.5, 16.72, 16.8, 16.16, 13.45, 10.94, 8.8, 7.81, 8.49, 9.42, 7.59, 6.95, 7.27, 8.31, 8.31, 8.31, 8.31, 8.0, 8.0, 8.0, 8.22, 7.81, 8.0, 8.0, 7.74, 7.74, 7.87, 7.97, 7.97, 8.03, 8.03, 8.05, 8.05, 7.6, 7.6, 7.6, 7.6, 7.58, 7.58, 7.58, 7.58, 7.07, 7.06, 7.06, 7.06, 7.06, 7.06, 7.13, 7.13, 6.68, 6.68, 6.68, 6.61, 6.61, 6.6, 6.16, 5.4, 4.93, 4.65, 4.65, 4.65, 4.84, 5.47, 5.47, 5.6, 5.21, 5.21, 5.21, 5.21, 5.21, 5.58, 5.21, 5.21, 5.29, 5.29, 4.71, 4.37, 4.11, 3.79, 3.49, 2.84, 3.47, 5.31, 5.31, 5.31, 4.96, 5.1, 5.1, 5.59, 6.73, 7.06, 7.81, 8.43, 8.67, 9.67, 9.66, 9.96, 11.6, 14.13, 16.12, 17.06, 17.69, 14.27, 10.0, 7.69, 6.95, 9.66, 10.41, 9.04, 7.68, 7.64, 9.0, 7.9, 7.9, 7.9, 8.0, 8.0, 8.0, 8.22, 7.81, 8.0, 8.0, 7.74, 7.74, 7.87, 7.97, 7.97, 8.03, 8.03, 8.05, 8.05, 8.05, 8.05, 7.6, 7.6, 7.58, 7.58, 7.58, 7.58, 7.07, 7.06, 7.13, 7.13, 7.13, 7.13, 7.13, 7.13, 6.68, 6.68, 6.68, 6.61, 6.61, 6.6, 6.47, 6.04, 5.81, 4.65, 4.65, 4.65, 4.84, 5.47, 5.6, 5.6, 5.37, 5.37, 5.21, 5.21, 5.21, 5.75, 5.58, 5.21, 5.29, 5.29, 5.29, 4.71, 4.37, 4.11, 3.49, 2.84, 3.08, 5.31, 4.71, 4.0, 4.96, 5.24, 6.01, 6.32, 7.06, 7.76, 7.35, 7.68, 8.03, 9.04, 9.66, 10.37, 11.03, 12.89, 14.86, 16.88, 18.72, 14.68, 8.88, 6.64, 9.21, 10.15, 9.67, 8.73, 8.31, 8.31, 8.93, 7.52, 7.52, 7.52, 8.0, 8.0, 8.22, 7.81, 7.81, 8.0, 8.0, 7.74, 7.87, 7.87, 7.97, 7.97, 8.03, 8.03, 8.05, 8.05, 8.05, 8.05, 8.05, 7.6, 7.6, 7.58, 7.58, 7.58, 7.58, 7.13, 7.13, 7.13, 7.13, 7.13, 7.13, 7.13, 7.13, 6.68, 6.68, 6.61, 6.51, 6.51, 6.51, 6.51, 6.3, 5.6, 4.84, 4.65, 4.84, 5.47, 5.6, 5.6, 5.6, 6.0, 5.6, 5.21, 5.75, 5.75, 5.75, 5.29, 5.29, 5.29, 5.29, 5.29, 4.71, 4.11, 3.49, 2.84, 2.84, 3.33, 4.16, 4.42, 4.68, 5.24, 5.24, 5.53, 6.18, 6.95, 7.35, 7.68, 8.03, 7.97, 9.0, 9.66, 10.28, 11.28, 12.52, 16.74, 19.59, 15.87, 6.79, 8.53, 10.81, 10.79, 9.21, 8.53, 8.85, 9.17, 8.85, 7.82, 7.82, 7.82, 8.0, 8.0, 7.81, 7.81, 8.0, 8.0, 8.17, 7.74, 7.87, 7.87, 7.97, 7.97, 8.03, 8.03, 8.05, 8.05, 8.05, 8.05, 8.05, 8.05, 7.6, 7.6, 7.58, 7.58, 7.58, 7.58, 7.6, 7.6, 7.6, 7.6, 7.15, 7.13, 7.13, 7.13, 7.06, 6.61, 6.51, 6.51, 6.94, 6.94, 6.94, 6.3, 5.47, 5.08, 5.08, 5.47, 5.6, 5.6, 5.6, 6.0, 6.0, 6.0, 5.75, 6.28, 5.86, 5.29, 5.29, 5.49, 5.49, 5.29, 4.94, 4.71, 4.11, 3.49, 2.84, 3.72, 3.33, 4.42, 4.03, 4.68, 5.24, 5.24, 5.37, 6.73, 6.64, 7.35, 7.27, 7.97, 9.04, 10.04, 10.04, 10.04, 10.66, 15.35, 20.61, 11.16, 8.57, 9.21, 10.81, 10.18, 9.48, 9.1, 9.48, 9.8, 9.48, 8.53, 8.53, 8.53, 8.0, 7.6, 7.81, 7.81, 8.0, 8.0, 7.74, 7.74, 7.87, 7.87, 7.97, 7.97, 8.03, 8.03, 8.05, 8.05, 8.05, 8.05, 8.05, 8.05, 8.05, 8.05, 7.6, 7.6, 7.6, 7.6, 7.6, 7.6, 7.6, 7.6, 7.15, 7.13, 7.13, 7.06, 7.06, 7.06, 6.94, 6.51, 6.94, 6.94, 6.94, 6.51, 5.81, 5.08, 5.08, 5.47, 5.6, 5.81, 5.81, 6.23, 6.0, 6.0, 5.75, 6.03, 5.86, 5.86, 5.86, 5.86, 5.86, 5.86, 5.29, 4.71, 4.11, 4.11, 3.49, 2.84, 2.47, 3.55, 3.4, 4.26, 5.1, 6.01, 5.53, 5.24, 6.32, 6.64, 7.27, 8.03, 8.67, 9.6, 9.65, 9.65, 10.43, 14.21, 17.81, 12.33, 10.19, 9.56, 9.57, 9.85, 10.12, 10.12, 10.51, 10.18, 10.24, 8.93, 8.93, 8.93, 7.48, 7.48, 7.71, 7.71, 8.0, 7.58, 7.74, 7.74, 7.87, 7.87, 7.97, 7.97, 8.03, 8.03, 8.03, 8.05, 8.05, 8.05, 8.05, 8.05, 8.05, 8.05, 8.05, 8.05, 8.05, 8.05, 7.6, 7.6, 7.6, 7.6, 7.6, 7.13, 7.13, 7.07, 7.51, 7.07, 7.06, 6.51, 6.51, 6.94, 6.94, 6.94, 6.47, 5.81, 5.31, 5.31, 5.81, 5.81, 5.81, 6.3, 6.3, 6.1, 6.1, 6.28, 6.03, 6.03, 5.86, 5.86, 5.86, 5.86, 5.29, 5.29, 4.71, 4.11, 3.49, 3.08, 2.47, 2.64, 3.55, 4.26, 4.83, 5.1, 5.89, 5.36, 5.1, 5.89, 7.35, 8.42, 9.03, 8.67, 9.05, 10.23, 11.37, 18.62, 15.96, 11.6, 10.09, 9.52, 8.59, 8.85, 10.12, 10.78, 11.2, 11.25, 10.63, 9.66, 9.66, 9.66, 7.48, 7.48, 7.71, 7.71, 7.51, 7.51, 7.69, 7.74, 7.87, 7.87, 7.87, 7.97, 7.97, 8.03, 8.03, 8.03, 8.03, 8.03, 8.03, 8.03, 8.05, 8.05, 8.05, 8.05, 7.6, 7.6, 7.6, 7.6, 7.6, 7.6, 7.6, 7.58, 7.13, 7.51, 7.51, 7.51, 7.06, 6.61, 6.51, 6.94, 7.06, 6.94, 6.94, 6.47, 5.81, 5.4, 5.4, 5.4, 5.99, 5.81, 6.3, 6.3, 6.1, 6.28, 6.28, 6.28, 6.28, 6.13, 5.86, 5.86, 5.65, 5.01, 5.05, 4.43, 3.49, 3.08, 2.6, 2.36, 3.55, 4.42, 4.95, 4.83, 5.89, 5.89, 5.89, 5.89, 7.35, 8.03, 8.38, 8.38, 9.04, 10.66, 16.27, 18.39, 14.35, 9.74, 8.63, 8.32, 8.27, 8.85, 10.15, 11.15, 11.9, 11.64, 11.28, 9.3, 9.3, 9.3, 7.48, 7.48, 7.71, 7.31, 7.51, 7.51, 7.69, 7.69, 7.69, 7.87, 7.87, 7.87, 7.97, 7.97, 7.97, 7.97, 7.97, 8.03, 8.03, 8.03, 8.03, 8.03, 8.03, 7.6, 7.6, 7.6, 8.05, 8.05, 7.6, 7.6, 7.58, 7.58, 7.51, 7.58, 7.58, 7.51, 7.06, 6.61, 6.61, 7.06, 7.07, 7.07, 6.94, 6.47, 6.04, 5.99, 5.57, 5.57, 5.57, 5.57, 5.99, 5.88, 6.1, 6.1, 6.51, 6.28, 6.28, 6.13, 5.86, 5.49, 5.29, 5.29, 5.01, 4.43, 4.12, 3.47, 2.82, 2.82, 3.55, 4.16, 4.42, 5.24, 5.53, 5.89, 5.89, 6.01, 6.64, 7.27, 8.31, 8.65, 9.0, 10.28, 15.35, 19.02, 16.39, 9.65, 7.41, 8.38, 8.57, 9.53, 10.15, 11.45, 12.52, 12.27, 10.9, 9.3, 9.3, 9.3, 7.48, 7.48, 7.71, 7.31, 7.31, 7.51, 7.51, 7.69, 7.69, 7.74, 7.74, 7.87, 7.87, 7.87, 7.87, 7.97, 7.97, 7.97, 7.97, 8.03, 8.03, 8.03, 8.05, 7.6, 8.05, 8.05, 8.05, 8.05, 7.6, 7.6, 7.58, 7.58, 7.58, 7.58, 7.58, 7.51, 7.06, 6.61, 6.61, 7.06, 7.51, 7.07, 7.06, 6.61, 6.47, 6.04, 5.57, 5.57, 5.57, 5.57, 5.57, 5.99, 5.81, 6.23, 6.1, 6.1, 5.89, 5.75, 5.75, 5.49, 5.29, 5.29, 5.01, 4.74, 4.12, 3.47, 3.47, 3.04, 3.04, 4.16, 4.42, 5.24, 4.83, 5.59, 5.89, 6.39, 6.79, 7.02, 8.03, 8.68, 9.04, 11.26, 13.49, 17.66, 18.47, 12.65, 7.94, 7.9, 8.85, 9.85, 10.47, 11.8, 13.02, 12.89, 10.66, 8.68, 8.68, 8.68, 7.48, 7.48, 7.48, 7.31, 7.31, 7.51, 7.51, 7.51, 7.51, 7.74, 7.74, 7.74, 7.87, 7.87, 7.87, 7.87, 7.97, 7.97, 7.97, 8.03, 8.03, 8.03, 8.05, 8.05, 8.05, 8.05, 8.05, 8.05, 7.6, 7.6, 7.58, 7.58, 8.03, 7.58, 7.58, 7.58, 7.07, 6.61, 6.61, 7.06, 7.51, 7.51, 7.06, 6.61, 6.61, 6.6, 6.16, 5.7, 5.57, 5.57, 5.57, 5.99, 5.81, 5.81, 5.81, 6.0, 6.0, 5.75, 5.75, 5.58, 5.58, 5.29, 5.29, 5.01, 4.12, 3.84, 3.47, 3.47, 3.04, 3.55, 4.42, 4.68, 5.1, 5.89, 6.32, 6.73, 6.79, 6.79, 7.41, 8.06, 9.27, 10.23, 11.83, 15.03, 17.7, 14.5, 10.18, 8.79, 9.43, 10.12, 11.15, 12.16, 13.02, 12.89, 10.66, 8.38, 8.38, 8.38, 7.48, 7.48, 7.71, 7.31, 7.31, 7.31, 7.51, 7.51, 7.51, 7.74, 7.74, 7.74, 7.74, 7.87, 7.87, 7.87, 7.97, 7.97, 7.97, 8.03, 8.03, 8.03, 8.03, 8.03, 8.05, 8.05, 8.05, 8.05, 8.05, 8.05, 8.05, 8.05, 8.05, 7.58, 7.58, 7.58, 7.13, 6.68, 6.68, 7.13, 7.58, 7.51, 7.07, 7.06, 6.61, 6.61, 6.61, 6.16, 5.57, 5.57, 5.57, 5.81, 5.81, 5.81, 5.81, 5.81, 5.6, 5.6, 5.6, 5.21, 5.21, 5.29, 5.29, 5.01, 4.74, 4.12, 4.12, 3.47, 3.22, 3.55, 4.42, 4.42, 5.24, 5.59, 6.32, 6.64, 7.41, 6.79, 7.07, 8.63, 9.2, 10.15, 11.2, 13.75, 16.45, 14.88, 11.14, 9.37, 10.75, 11.41, 11.44, 12.07, 13.02, 12.89, 10.29, 8.06, 8.06, 8.06, 7.71, 7.71, 7.71, 7.31, 7.31, 7.31, 7.51, 7.58, 8.0, 8.17, 8.17, 8.17, 8.17, 8.3, 7.87, 7.87, 7.97, 7.97, 8.03, 8.03, 8.03, 8.03, 8.03, 8.03, 8.05, 8.05, 8.05, 8.05, 8.05, 8.05, 8.05, 8.05, 8.05, 7.6, 7.58, 7.58, 7.13, 7.13, 6.68, 6.68, 7.13, 7.58, 7.51, 7.06, 7.06, 7.07, 7.06, 6.61, 6.04, 5.99, 5.99, 6.3, 6.3, 6.3, 6.3, 5.81, 5.6, 5.6, 5.6, 5.47, 5.21, 5.21, 5.29, 5.29, 4.74, 4.43, 4.12, 4.12, 4.12, 3.49, 3.76, 4.95, 5.24, 5.69, 6.39, 7.41, 8.05, 8.05, 8.0, 8.55, 9.36, 9.6, 10.63, 12.86, 16.06, 14.5, 11.47, 10.07, 11.01, 12.4, 12.42, 12.43, 12.78, 12.26, 10.01, 7.44, 7.44, 7.44, 7.81, 7.81, 7.81, 7.81, 8.0, 8.0, 8.0, 8.0, 8.17, 8.17, 8.17, 8.21, 8.33, 8.33, 8.3, 8.41, 8.41, 8.03, 8.03, 8.03, 8.05, 8.05, 8.05, 8.05, 8.05, 8.05, 8.05, 8.05, 8.05, 8.05, 8.05, 8.05, 8.05, 7.6, 7.6, 7.15, 7.13, 7.13, 7.13, 7.15, 7.15, 7.13, 7.58, 7.51, 7.51, 7.51, 7.51, 7.06, 6.51, 6.47, 6.47, 6.47, 6.79, 6.79, 6.51, 6.1, 6.0, 5.6, 5.6, 5.6, 5.47, 5.21, 5.21, 4.94, 4.71, 4.43, 4.43, 4.43, 4.12, 4.12, 4.12, 5.37, 5.69, 7.81, 6.79, 7.44, 8.05, 8.05, 8.05, 8.05, 8.63, 9.42, 9.67, 11.88, 15.47, 15.5, 12.42, 10.95, 11.01, 12.4, 12.07, 12.08, 12.43, 12.05, 9.57, 6.7, 6.7, 6.7, 7.81, 7.81, 7.81, 7.81, 8.0, 8.0, 8.0, 8.17, 8.21, 8.21, 8.33, 8.77, 8.33, 8.42, 8.42, 8.42, 8.47, 8.47, 8.47, 8.49, 8.49, 8.49, 8.49, 8.49, 8.05, 8.05, 8.05, 8.05, 8.05, 8.05, 8.05, 8.05, 8.05, 7.6, 7.6, 7.15, 7.15, 7.15, 7.6, 7.15, 7.13, 7.13, 7.58, 7.51, 7.51, 7.51, 7.51, 7.4, 6.94, 7.06, 6.94, 6.94, 6.79, 6.79, 6.6, 6.6, 6.51, 6.1, 6.0, 5.6, 5.6, 5.47, 5.21, 5.21, 4.71, 4.71, 4.74, 4.74, 4.74, 4.12, 4.12, 4.74, 5.01, 7.81, 6.79, 7.44, 7.41, 8.06, 7.41, 7.41, 7.69, 8.67, 9.65, 11.26, 13.26, 13.8, 13.04, 11.59, 11.59, 12.01, 12.42, 12.09, 12.08, 11.45, 8.93, 6.79, 6.79, 6.79, 7.81, 7.81, 7.81, 7.81, 8.0, 8.0, 8.0, 8.17, 8.21, 8.21, 8.33, 8.77, 8.33, 8.42, 8.42, 8.42, 8.47, 8.47, 8.47, 8.49, 8.49, 8.49, 8.49, 8.49, 8.05, 8.05, 8.05, 8.05, 8.05, 8.05, 8.05, 8.05, 8.05, 7.6, 7.6, 7.15, 7.15, 7.15, 7.6, 7.15, 7.13, 7.13, 7.58, 7.51, 7.51, 7.51, 7.51, 7.4, 6.94, 7.06, 6.94, 6.94, 6.79, 6.79, 6.6, 6.6, 6.51, 6.1, 6.0, 5.6, 5.6, 5.47, 5.21, 5.21, 4.71, 4.71, 4.74, 4.74, 4.74, 4.12, 4.12, 4.74, 5.01, 7.81, 6.79, 7.44, 8.06, 8.06, 7.41, 7.41, 7.69, 8.06, 9.05, 9.67, 10.91, 12.22, 12.33, 11.92, 12.33, 12.33, 12.33, 12.42, 12.5, 11.54, 8.22, 6.11, 6.11, 6.11]}, {"header": {"dx": 0.06612293990616946, "dy": 0.0552356325346848, "nx": 98, "ny": 59, "la1": 35.046912555036876, "la2": 31.78801023549047, "lo1": -121.43107172385933, "lo2": -114.95102361305473, "refTime": "2026041122", "parameterCategory": 1, "parameterNumber": 3}, "data": [0.57, 0.57, 0.57, 0.57, 0.57, 0.57, 1.23, 1.23, 1.23, 1.23, 1.23, 1.19, 1.73, 0.89, 0.89, 0.89, 1.75, 1.95, 1.4, 2.26, 2.6, 3.79, 3.35, 2.54, 3.36, 3.25, 3.25, 2.6, 2.4, 0.0, -0.0, -1.9, -2.64, -2.44, -1.6, -0.78, -0.79, -0.81, -0.89, -1.08, 0.0, 0.96, 5.37, 7.81, 9.32, 9.03, 9.42, 9.43, 9.4, 10.04, 10.04, 9.67, 9.4, 9.81, 9.4, 9.0, 8.53, 8.22, 7.68, 7.41, 7.2, 7.2, 7.2, 7.2, 7.15, 7.76, 8.31, 8.64, 8.93, 8.42, 8.12, 6.7, 5.86, 5.0, 3.36, 3.63, 3.4, 2.26, 0.89, 0.95, 1.84, 3.77, 6.01, 8.4, 10.14, 10.18, 10.6, 11.05, 11.59, 12.04, 11.96, 11.84, 12.09, 12.3, 12.3, 12.3, 12.3, 13.01, 0.59, 0.59, 0.59, 0.66, 0.57, 0.57, 1.23, 1.23, 1.23, 1.23, 1.76, 1.84, 1.84, 1.65, 1.26, 1.26, 1.65, 1.4, 2.4, 2.47, 3.45, 4.02, 3.68, 4.0, 3.63, 3.49, 3.49, 4.2, 3.55, 1.26, -2.0, -2.6, -1.98, -2.67, -2.54, -2.69, -2.54, -2.35, -2.3, -2.23, 0.0, 5.37, 8.54, 8.8, 8.95, 9.03, 9.05, 9.04, 9.4, 9.34, 9.34, 9.34, 9.4, 9.3, 8.94, 9.0, 8.53, 8.22, 8.38, 8.42, 7.81, 7.82, 7.44, 7.41, 7.76, 8.42, 8.73, 9.0, 8.93, 8.42, 7.51, 6.56, 5.72, 4.3, 4.2, 3.55, 2.8, 2.26, 0.89, 0.95, 1.84, 3.77, 6.01, 8.4, 10.14, 10.18, 10.6, 11.05, 11.59, 12.04, 11.96, 11.84, 12.09, 12.3, 12.3, 12.3, 12.3, 13.01, 0.59, 0.59, 0.59, 0.59, 0.57, 0.57, 0.63, 1.23, 1.23, 1.76, 1.76, 2.2, 2.67, 2.69, 2.44, 1.84, 1.75, 1.65, 1.96, 2.49, 2.47, 3.91, 4.14, 4.96, 6.3, 5.36, 5.36, 5.1, 4.58, 2.6, 0.0, 0.0, 0.0, 0.0, -0.96, -2.8, -3.35, -3.84, -4.0, 0.0, 4.81, 8.0, 9.36, 9.36, 8.43, 8.43, 8.42, 8.73, 9.0, 9.34, 8.93, 8.64, 8.73, 8.73, 8.58, 8.64, 8.22, 8.31, 8.79, 8.42, 9.03, 9.03, 9.05, 9.43, 10.04, 10.04, 9.4, 9.0, 8.53, 7.64, 6.7, 5.72, 5.06, 4.13, 4.26, 3.91, 1.84, 0.95, 0.0, 0.0, 1.98, 4.42, 7.15, 9.97, 10.18, 10.18, 10.18, 11.05, 12.04, 12.04, 11.96, 11.84, 12.09, 12.3, 12.04, 12.04, 12.3, 13.01, 0.61, 0.61, 0.51, 0.59, 0.57, 0.57, 0.57, 1.11, 1.8, 1.8, 2.48, 2.44, 2.67, 2.44, 2.57, 2.44, 1.75, 1.73, 2.64, 2.64, 3.11, 4.29, 5.69, 4.95, 6.32, 6.95, 6.11, 5.37, 5.49, 5.2, 4.0, 3.93, 5.58, 6.28, 5.21, 2.84, -2.21, -3.2, 0.0, 5.6, 8.72, 8.95, 8.8, 8.43, 7.81, 7.81, 7.76, 8.38, 8.64, 8.53, 7.9, 7.59, 7.68, 8.42, 8.79, 8.73, 8.31, 8.38, 8.42, 8.82, 9.6, 10.63, 11.2, 11.26, 11.26, 10.66, 10.04, 8.93, 8.22, 7.36, 6.33, 5.51, 5.0, 4.5, 4.01, 2.68, 1.05, 0.0, 0.0, 0.0, 2.4, 5.24, 8.8, 10.14, 10.7, 11.05, 11.05, 11.59, 12.04, 11.96, 11.8, 11.8, 12.04, 12.3, 12.04, 12.04, 12.3, 12.53, 0.53, 0.61, 0.61, 0.0, 0.0, 0.59, 1.13, 1.6, 2.23, 2.23, 2.23, 2.22, 2.82, 2.69, 2.57, 2.69, 2.4, 2.64, 3.47, 4.74, 6.52, 6.52, 6.52, 6.9, 6.18, 6.98, 7.67, 8.0, 8.0, 7.12, 7.63, 8.06, 8.14, 8.06, 8.06, 7.63, 6.4, 4.74, 6.0, 8.56, 9.66, 9.36, 9.03, 8.67, 8.06, 7.41, 7.76, 7.59, 8.22, 7.78, 7.48, 7.68, 7.76, 8.82, 8.79, 8.38, 8.02, 8.12, 8.43, 9.36, 10.43, 11.2, 11.83, 12.23, 12.23, 12.23, 10.66, 10.01, 9.26, 8.3, 7.51, 6.7, 5.3, 4.34, 3.16, 1.0, 0.0, 2.53, 3.82, 1.8, 4.11, 7.82, 9.97, 10.69, 10.73, 10.7, 11.59, 12.04, 11.96, 11.96, 12.27, 12.09, 12.09, 11.87, 11.92, 12.3, 12.3, 12.53, 0.0, 0.0, 0.0, 0.0, 0.51, 0.51, 1.33, 2.23, 2.23, 2.84, 2.84, 3.15, 2.82, 1.84, 1.84, 1.84, 3.55, 4.74, 5.82, 7.12, 7.53, 6.8, 7.2, 7.63, 7.63, 7.06, 7.63, 8.48, 8.8, 9.04, 8.06, 8.29, 7.85, 7.37, 7.21, 7.63, 7.42, 6.45, 6.82, 8.06, 8.56, 10.46, 10.0, 9.67, 8.65, 8.31, 8.31, 7.9, 7.78, 7.48, 6.83, 7.35, 8.43, 8.43, 8.42, 7.68, 7.35, 7.81, 8.4, 9.75, 10.85, 11.5, 12.15, 13.11, 13.75, 13.83, 12.65, 10.91, 9.89, 9.06, 8.18, 7.38, 6.7, 4.74, 2.53, 0.0, 1.9, 3.82, 4.82, 4.29, 6.99, 9.49, 10.25, 10.28, 9.83, 10.28, 10.7, 11.51, 11.95, 11.8, 12.71, 12.53, 12.3, 11.79, 11.5, 11.79, 12.3, 12.53, 0.0, 0.53, 0.61, 0.61, 1.16, 1.16, 1.84, 2.53, 2.79, 2.79, 3.35, 3.48, 3.77, 2.67, 2.54, 3.47, 5.95, 6.99, 7.85, 7.71, 7.21, 6.7, 6.94, 7.37, 7.63, 7.5, 7.5, 7.63, 8.4, 7.6, 8.91, 7.85, 7.54, 7.1, 6.98, 7.21, 7.2, 8.18, 7.33, 7.2, 9.03, 9.97, 10.4, 9.66, 9.76, 8.93, 9.17, 8.85, 8.93, 8.53, 8.82, 8.42, 9.03, 8.82, 7.76, 6.64, 6.32, 6.82, 8.56, 9.66, 10.32, 11.37, 13.23, 13.91, 14.58, 14.79, 13.51, 12.26, 10.51, 9.24, 8.05, 6.43, 5.2, 4.56, 2.95, 1.9, 2.8, 4.77, 6.64, 8.05, 8.9, 10.25, 9.8, 8.94, 8.49, 8.05, 9.35, 10.6, 11.51, 11.8, 11.71, 12.01, 12.3, 12.04, 11.79, 12.09, 12.58, 13.01, 0.0, 0.61, 0.61, 1.16, 1.16, 1.61, 2.53, 2.53, 2.79, 3.07, 3.6, 3.88, 4.74, 5.06, 5.69, 5.82, 6.7, 7.85, 7.89, 7.63, 6.7, 6.02, 6.65, 7.1, 7.1, 7.01, 7.01, 7.47, 7.28, 6.9, 7.45, 8.05, 7.6, 7.5, 6.28, 5.43, 5.21, 5.49, 7.33, 7.81, 8.91, 9.03, 8.54, 7.59, 6.98, 8.22, 8.93, 9.89, 10.63, 10.59, 8.38, 9.43, 10.0, 9.05, 7.35, 6.32, 5.37, 7.12, 8.33, 9.49, 10.18, 11.61, 12.58, 13.49, 13.91, 13.83, 12.87, 11.47, 9.89, 8.18, 6.4, 4.98, 3.42, 1.84, 1.99, 2.98, 5.73, 8.05, 8.94, 9.39, 8.01, 8.46, 8.01, 6.71, 5.81, 6.65, 8.36, 10.14, 11.51, 11.84, 11.71, 11.71, 12.3, 12.72, 12.8, 13.01, 13.01, 12.72, 0.0, 0.61, 1.16, 1.16, 1.61, 1.61, 2.15, 2.53, 2.79, 2.79, 3.2, 3.39, 6.51, 6.4, 6.6, 7.4, 7.81, 8.0, 7.42, 7.81, 8.38, 7.94, 7.1, 7.08, 6.64, 7.01, 7.01, 7.06, 7.06, 6.0, 6.71, 7.15, 7.15, 7.01, 5.21, 4.11, 4.46, 5.6, 5.69, 7.33, 8.18, 8.18, 7.56, 7.27, 5.72, 6.24, 8.49, 10.94, 11.64, 11.28, 11.5, 10.63, 10.63, 9.4, 8.03, 6.73, 6.6, 7.37, 8.9, 9.97, 10.89, 11.8, 11.8, 12.27, 12.3, 11.66, 11.14, 10.05, 8.86, 6.28, 4.04, 2.18, 0.0, 0.0, -0.87, 4.77, 9.39, 11.18, 11.18, 9.72, 9.06, 7.42, 7.11, 5.36, 4.92, 6.21, 8.36, 10.58, 11.08, 11.23, 11.28, 11.71, 12.14, 13.01, 13.44, 13.01, 12.53, 12.21, 0.0, 0.61, 1.16, 1.16, 1.16, 1.16, 1.88, 2.53, 2.53, 2.79, 3.07, 3.39, 3.07, 3.6, 5.24, 6.57, 7.08, 7.08, 7.45, 7.45, 7.45, 7.89, 7.94, 7.94, 7.45, 7.01, 7.01, 7.45, 7.45, 6.51, 6.51, 6.71, 7.15, 6.23, 5.72, 5.01, 4.46, 4.6, 6.28, 6.95, 7.06, 6.95, 6.04, 5.06, 4.96, 6.32, 7.35, 9.04, 10.01, 10.66, 11.04, 11.83, 11.83, 11.6, 10.63, 10.0, 9.24, 9.24, 9.8, 11.05, 11.8, 11.84, 12.75, 11.18, 10.55, 9.34, 8.18, 7.25, 5.81, 4.13, 2.45, 0.0, -1.55, -4.19, -2.8, 6.21, 11.05, 11.59, 10.7, 10.05, 9.6, 8.55, 6.51, 5.29, 4.85, 6.65, 8.82, 10.18, 11.08, 10.96, 11.42, 11.42, 12.27, 12.71, 12.74, 12.53, 11.79, 10.96, 0.0, 0.61, 0.61, 0.61, 0.61, 1.16, 1.4, 1.88, 2.53, 2.53, 2.79, 3.07, 2.91, 2.68, 4.65, 5.2, 5.94, 3.82, 2.5, 1.88, 3.79, 4.65, 5.37, 5.24, 7.06, 6.58, 6.71, 7.15, 6.51, 6.0, 6.0, 5.94, 5.94, 5.6, 5.21, 6.52, 6.52, 6.9, 5.24, 5.76, 6.04, 5.06, 4.83, 4.88, 5.72, 6.79, 7.81, 8.06, 8.42, 9.42, 11.92, 13.11, 13.64, 14.42, 14.15, 14.15, 13.23, 10.89, 11.05, 11.51, 12.27, 12.09, 11.11, 9.9, 9.05, 8.53, 7.9, 7.38, 5.51, 4.4, 1.84, -0.88, -5.09, -6.26, -1.79, 8.8, 10.96, 10.73, 10.7, 10.41, 9.34, 8.88, 8.0, 6.02, 6.21, 7.11, 9.36, 10.18, 10.63, 10.96, 10.96, 11.36, 11.51, 11.51, 11.8, 11.61, 10.85, 10.0, 0.0, 0.0, 0.0, 0.61, 0.61, 0.61, 1.0, 1.4, 1.88, 2.21, 2.53, 2.79, 3.07, 3.07, 3.07, 3.07, 2.79, 2.21, 1.2, 0.61, 0.59, 1.27, 1.11, 3.2, 5.06, 6.0, 6.07, 3.39, 4.8, 5.21, 5.06, 5.58, 6.0, 5.6, 4.54, 5.15, 4.95, 5.24, 5.1, 5.21, 4.4, 4.2, 4.34, 4.96, 6.63, 7.76, 9.45, 10.05, 10.46, 10.46, 11.18, 11.87, 13.44, 14.87, 14.84, 14.21, 13.11, 10.0, 10.45, 11.51, 12.27, 11.37, 10.55, 8.0, 8.43, 11.28, 12.89, 12.27, 10.63, 9.06, 4.02, -3.13, -6.26, -6.71, 3.58, 10.7, 11.14, 10.28, 9.72, 9.33, 9.42, 9.05, 9.77, 8.06, 7.71, 8.36, 9.36, 10.18, 10.49, 10.49, 10.05, 9.58, 10.18, 10.7, 11.05, 10.68, 9.9, 9.9, 0.0, 0.0, 0.0, 0.0, 0.0, 0.61, 0.61, 1.0, 1.4, 1.88, 2.21, 2.53, 2.79, 2.79, 2.79, 2.53, 1.88, 1.2, 0.53, 0.0, 0.0, 0.0, 0.0, 0.0, 1.08, 1.76, 1.8, 1.84, 1.88, 1.4, 3.22, 4.74, 5.58, 5.21, 4.89, 4.43, 4.74, 5.24, 4.5, 4.34, 3.32, 4.12, 4.42, 5.82, 7.2, 9.03, 9.97, 9.63, 9.63, 9.54, 8.4, 8.19, 9.36, 10.26, 10.6, 9.48, 8.15, 6.87, 8.56, 10.6, 11.61, 10.55, 9.05, 6.44, 9.54, 14.4, 17.3, 18.82, 17.19, 14.84, 7.6, -4.0, -7.15, -4.4, 7.54, 11.18, 11.14, 10.14, 9.11, 8.55, 8.24, 8.82, 8.8, 10.68, 10.68, 10.89, 10.6, 10.18, 10.49, 10.32, 9.4, 9.58, 10.18, 10.7, 10.58, 9.97, 9.75, 10.18, -0.57, 0.0, 0.0, 0.0, 0.0, 0.0, 0.0, 0.61, 1.16, 1.4, 1.88, 1.88, 2.21, 2.53, 2.79, 2.23, 2.23, 1.13, 0.51, 0.0, 0.0, 0.0, 0.0, 0.0, 0.0, 0.0, 0.0, 0.0, 0.0, 0.0, 1.49, 4.54, 6.08, 4.74, 4.74, 5.15, 5.43, 5.24, 4.5, 3.45, 3.4, 4.58, 6.52, 8.0, 9.03, 9.54, 8.14, 9.46, 8.63, 8.22, 7.21, 7.06, 7.6, 7.5, 5.93, 3.79, 3.91, 7.76, 9.97, 10.14, 10.68, 10.94, 9.1, 8.17, 9.83, 13.86, 15.58, 16.71, 17.16, 14.79, 11.02, 3.16, 0.0, 4.54, 10.41, 11.36, 11.11, 10.6, 9.36, 8.43, 7.81, 7.81, 8.55, 9.33, 11.71, 12.96, 12.53, 11.61, 10.8, 10.32, 9.4, 10.02, 10.7, 10.25, 9.11, 9.54, 9.54, 9.49, -1.23, -0.57, 0.0, 0.0, 0.0, 0.0, 0.0, 0.61, 0.61, 1.16, 1.4, 1.88, 1.88, 2.21, 2.53, 2.51, 2.23, 1.58, 1.11, 1.13, 0.61, 0.0, 0.0, 0.0, -0.59, -0.59, -0.51, 0.0, 0.0, 0.0, 1.86, 3.72, 6.28, 5.37, 6.08, 6.9, 7.44, 5.24, 5.21, 3.55, 4.74, 7.6, 7.6, 8.6, 8.6, 9.03, 9.03, 8.63, 8.0, 7.2, 7.21, 6.58, 6.07, 4.74, 3.76, 3.49, 5.75, 8.91, 9.18, 11.03, 9.36, 9.48, 8.54, 8.67, 9.77, 12.01, 12.96, 11.99, 11.33, 12.45, 12.27, 11.6, 10.0, 10.96, 12.04, 11.92, 11.02, 10.04, 9.05, 8.12, 6.73, 6.79, 7.03, 7.98, 9.54, 12.53, 13.23, 12.72, 11.52, 11.61, 10.68, 10.05, 10.18, 9.72, 9.7, 9.24, 8.56, 8.56, -1.19, -0.57, -0.57, -0.59, 0.0, 0.0, 0.0, 0.0, 0.61, 0.61, 1.16, 1.61, 1.61, 2.53, 2.23, 2.23, 1.76, 1.76, 1.73, 1.76, 1.13, 0.65, 0.0, 0.0, -0.57, -1.27, -1.16, -1.2, -0.8, 0.6, 3.32, 4.8, 5.21, 5.37, 6.9, 6.44, 6.11, 5.24, 5.31, 5.37, 6.16, 7.53, 8.0, 9.03, 8.6, 8.6, 8.6, 8.0, 7.44, 7.28, 7.2, 6.13, 5.36, 4.02, 2.4, 2.73, 5.6, 7.21, 7.76, 8.73, 7.76, 8.37, 7.07, 7.31, 7.6, 9.32, 8.45, 8.22, 8.73, 11.33, 11.6, 13.04, 12.89, 12.65, 12.65, 12.65, 11.28, 9.26, 8.31, 6.83, 5.89, 6.11, 6.82, 8.17, 8.72, 9.75, 11.87, 12.72, 12.3, 11.87, 11.37, 10.02, 9.58, 9.58, 8.82, 7.71, 6.94, 6.94, -1.73, -1.08, -1.11, -0.57, -0.59, 0.0, 0.0, 0.0, 0.51, 0.61, 1.16, 1.84, 1.84, 2.23, 2.23, 1.76, 1.76, 2.44, 2.84, 2.2, 1.13, 0.54, 1.88, 1.27, 0.0, -1.84, -2.15, -1.26, 0.0, 2.8, 5.09, 5.81, 5.47, 6.9, 6.21, 6.44, 6.18, 6.9, 6.9, 6.9, 8.06, 7.12, 8.0, 7.53, 8.48, 8.48, 8.0, 7.81, 6.32, 6.63, 6.28, 6.28, 5.69, 5.03, 4.75, 5.06, 6.13, 6.52, 6.63, 6.3, 6.58, 6.32, 4.74, 5.2, 6.26, 7.1, 7.15, 7.21, 9.03, 11.03, 10.61, 9.23, 9.89, 10.54, 11.7, 11.29, 10.54, 9.24, 7.64, 6.83, 7.06, 7.81, 8.21, 9.08, 9.9, 10.68, 10.68, 12.53, 12.3, 11.92, 11.03, 9.83, 10.05, 10.02, 9.06, 7.47, 6.64, 6.64, -1.7, -1.73, -1.23, -1.11, -0.59, -0.59, 0.0, 0.0, 0.0, 0.51, 1.33, 1.84, 1.8, 2.23, 2.23, 1.76, 2.48, 3.49, 3.47, 1.7, 0.0, 0.99, 3.6, 3.48, 1.61, -0.6, 0.0, 0.95, 2.4, 5.09, 5.81, 5.6, 5.08, 4.93, 4.93, 5.58, 6.0, 5.72, 6.52, 6.9, 7.47, 8.06, 7.47, 7.28, 7.6, 7.44, 6.98, 6.64, 6.64, 5.59, 5.69, 5.69, 5.03, 5.03, 6.28, 6.28, 6.9, 6.28, 6.32, 6.01, 6.01, 5.31, 4.74, 5.6, 7.15, 6.71, 5.36, 6.26, 7.06, 6.52, 5.54, 5.67, 6.54, 7.6, 8.03, 8.99, 8.86, 9.12, 8.18, 7.9, 8.79, 9.42, 9.6, 11.21, 12.3, 12.53, 12.27, 12.09, 12.3, 12.04, 11.5, 10.85, 10.32, 9.83, 9.24, 8.17, 6.7, 6.7, -1.84, -1.7, -1.73, -1.23, -1.11, -0.59, 0.0, 0.0, 0.0, 1.13, 1.33, 1.6, 1.8, 2.23, 2.23, 2.99, 2.86, 3.49, 3.47, 1.7, 0.0, 2.17, 4.8, 6.57, 5.94, 5.94, 3.53, 5.94, 6.57, 5.81, 5.6, 5.08, 4.93, 4.55, 4.55, 4.0, 4.0, 3.78, 4.43, 6.08, 5.15, 5.95, 5.37, 6.28, 6.63, 6.32, 5.59, 4.96, 4.96, 5.59, 6.01, 6.63, 6.63, 6.98, 7.44, 7.81, 7.44, 7.81, 7.56, 6.3, 4.96, 5.03, 5.06, 6.02, 7.55, 7.55, 6.65, 5.29, 4.0, 2.6, 2.6, 4.04, 4.79, 4.82, 4.79, 4.1, 4.07, 5.73, 6.56, 8.64, 10.04, 10.0, 10.0, 11.21, 12.3, 12.3, 11.61, 10.1, 11.37, 10.94, 11.5, 11.09, 10.43, 10.01, 9.75, 8.4, 8.05, 8.05, -2.32, -1.84, -1.73, -1.76, -1.11, -0.66, -0.59, 0.0, 0.0, 1.13, 1.13, 1.6, 1.8, 2.23, 2.23, 2.48, 2.22, 2.86, 3.72, 3.72, 3.22, 4.11, 5.09, 6.45, 6.45, 6.57, 7.12, 5.81, 5.6, 5.21, 4.84, 4.65, 4.29, 4.37, 4.0, 4.0, 3.78, 3.43, 3.48, 3.12, 3.49, 3.49, 3.49, 3.49, 3.47, 4.0, 4.0, 4.0, 4.96, 5.31, 6.63, 7.44, 7.81, 8.15, 7.82, 7.81, 8.54, 7.07, 6.01, 5.46, 5.31, 5.37, 6.52, 7.94, 8.0, 7.63, 7.12, 5.82, 4.11, 1.63, 1.62, 1.62, 1.61, 1.63, 0.0, 0.0, 0.0, 0.86, 7.68, 9.4, 9.4, 9.43, 9.65, 10.96, 11.09, 10.79, 9.74, 9.2, 9.74, 9.84, 10.55, 10.96, 10.55, 10.32, 9.6, 8.43, 7.68, 7.68, -2.32, -2.16, -1.7, -1.73, -1.76, -1.11, -0.51, 0.0, 0.0, 0.59, 1.13, 1.6, 1.8, 2.23, 2.48, 2.22, 2.22, 2.22, 2.44, 3.72, 4.58, 4.37, 4.41, 3.78, 3.72, 4.27, 4.55, 4.93, 4.65, 4.65, 4.65, 4.65, 4.07, 4.37, 4.0, 4.27, 4.0, 4.0, 3.48, 3.49, 3.49, 3.49, 2.84, 3.08, 3.08, 4.37, 3.8, 4.0, 3.8, 5.69, 7.28, 8.0, 8.63, 8.63, 8.93, 8.05, 8.06, 7.69, 6.64, 5.31, 5.69, 6.28, 8.06, 8.6, 7.63, 7.2, 7.2, 6.82, 6.39, 5.36, 4.44, 2.47, 0.8, -0.82, -2.49, -3.32, -1.6, 1.99, 6.55, 7.76, 8.73, 9.4, 10.66, 11.34, 11.92, 11.5, 10.96, 10.27, 10.15, 9.34, 10.0, 10.55, 10.23, 9.45, 8.24, 6.7, 5.94, 5.94, -2.29, -2.32, -2.36, -1.7, -1.73, -1.23, -0.57, 0.0, 0.0, 0.59, 1.13, 1.8, 1.8, 2.23, 2.22, 2.22, 2.22, 1.94, 1.57, 1.73, 2.36, 3.04, 3.04, 2.84, 2.44, 2.86, 3.43, 4.0, 4.37, 4.55, 4.29, 4.07, 4.07, 4.0, 4.0, 4.27, 4.27, 4.37, 4.07, 4.07, 4.11, 3.78, 3.78, 3.49, 3.49, 3.47, 4.0, 3.8, 4.14, 6.9, 7.6, 8.0, 8.0, 8.63, 9.04, 8.93, 9.42, 9.05, 7.56, 6.28, 5.95, 6.8, 7.63, 8.06, 7.76, 8.17, 8.17, 8.3, 8.43, 9.09, 8.85, 8.46, 6.43, 1.75, -2.8, -2.24, -1.9, 1.98, 3.48, 4.01, 7.06, 9.3, 12.23, 13.64, 13.64, 13.11, 12.56, 12.15, 10.94, 9.74, 9.74, 9.52, 9.56, 8.93, 7.69, 5.3, 4.5, 4.5, -2.96, -2.96, -2.29, -2.36, -1.88, -1.08, -0.57, 0.0, 0.0, 0.59, 1.27, 1.8, 2.0, 2.22, 2.22, 2.22, 2.2, 1.73, 1.73, 1.73, 1.7, 1.7, 1.84, 2.36, 2.36, 2.4, 2.86, 3.48, 4.0, 4.37, 4.07, 4.07, 3.48, 3.78, 4.0, 4.4, 4.8, 4.8, 4.93, 4.65, 4.37, 4.11, 4.11, 3.49, 3.49, 3.47, 3.8, 4.14, 5.69, 6.9, 7.6, 8.0, 8.0, 8.0, 8.63, 9.04, 9.36, 9.65, 9.09, 6.82, 6.8, 8.06, 8.56, 8.99, 8.72, 9.24, 9.66, 8.3, 8.4, 8.4, 9.48, 10.01, 6.33, 2.66, 4.4, 1.98, 1.66, 1.66, 0.87, 0.87, 3.72, 9.42, 13.39, 14.42, 14.05, 13.75, 13.19, 12.23, 11.04, 10.04, 9.45, 9.3, 8.94, 8.3, 6.64, 5.21, 4.46, 4.46, -2.75, -2.75, -2.77, -2.29, -1.7, -1.19, -0.55, 0.0, 0.0, 0.57, 1.11, 1.76, 1.76, 2.22, 2.44, 2.2, 2.2, 2.2, 1.88, 1.7, 1.7, 1.7, 1.7, 1.7, 2.36, 2.36, 2.18, 2.86, 3.48, 4.07, 4.07, 3.73, 3.48, 3.78, 4.0, 4.9, 5.31, 5.31, 5.08, 4.65, 4.65, 4.37, 4.11, 3.49, 3.49, 3.08, 3.8, 4.37, 5.31, 6.63, 7.28, 7.28, 7.6, 8.06, 8.48, 8.4, 7.76, 8.4, 9.7, 9.32, 8.06, 8.06, 8.56, 8.72, 9.24, 9.66, 9.66, 10.0, 8.4, 7.82, 6.79, 5.92, 5.76, 5.51, 4.48, 3.61, 2.58, 1.4, -2.2, -1.98, 2.68, 8.67, 11.95, 12.72, 12.7, 11.88, 11.66, 10.66, 9.96, 9.62, 9.04, 8.3, 7.94, 7.27, 6.95, 5.94, 5.49, 5.49, -2.92, -2.92, -2.75, -2.29, -2.32, -1.67, -1.07, -0.61, 0.0, 0.55, 1.23, 1.23, 1.73, 1.73, 2.2, 2.2, 2.4, 2.4, 2.18, 1.7, 1.7, 1.7, 1.7, 1.7, 1.7, 1.67, 1.67, 2.36, 2.84, 3.49, 3.79, 3.48, 3.48, 3.48, 4.55, 5.31, 5.81, 5.81, 5.47, 5.21, 5.01, 4.71, 4.71, 4.12, 3.49, 2.82, 1.8, 2.26, 2.44, 2.8, 3.49, 6.28, 6.9, 8.06, 8.06, 7.6, 7.6, 6.7, 8.48, 9.04, 9.04, 7.2, 7.76, 8.3, 8.72, 9.24, 9.36, 9.36, 8.82, 6.45, 4.5, 4.17, 7.04, 8.12, 6.6, 4.87, 3.15, 0.0, -4.8, -2.53, 3.48, 8.91, 11.23, 11.3, 11.64, 10.66, 9.96, 10.01, 9.26, 9.23, 9.17, 8.27, 7.59, 7.27, 6.95, 6.24, 6.64, 6.64, -3.4, -3.4, -2.92, -2.75, -2.29, -2.32, -1.67, -0.54, 0.0, 0.0, 0.61, 1.19, 1.73, 1.88, 2.4, 2.4, 2.4, 2.18, 2.18, 2.36, 2.36, 1.84, 1.84, 1.7, 1.7, 1.67, 1.67, 1.8, 1.67, 2.61, 3.22, 3.49, 3.48, 4.0, 5.08, 5.6, 5.6, 5.6, 5.47, 5.21, 5.21, 4.71, 4.71, 4.12, 3.47, 2.32, 1.12, 1.2, 1.12, 1.16, 2.86, 4.55, 7.63, 8.06, 8.06, 7.6, 6.9, 6.64, 7.5, 8.06, 6.98, 7.44, 6.8, 7.76, 8.3, 9.13, 8.95, 9.36, 7.76, 6.32, 5.1, 5.2, 6.4, 9.79, 10.73, 8.99, 6.14, 0.88, -1.4, 1.27, 6.57, 9.11, 10.32, 10.79, 10.79, 10.98, 10.3, 9.62, 9.26, 8.9, 9.56, 8.9, 7.9, 7.27, 7.64, 6.83, 6.58, 6.58, -3.37, -3.37, -2.92, -2.92, -2.44, -2.29, -1.8, -1.14, 0.0, 0.0, 0.54, 1.16, 1.7, 1.7, 2.18, 2.36, 2.36, 2.36, 2.36, 2.36, 2.36, 2.36, 1.84, 1.84, 1.84, 1.67, 1.8, 1.12, 1.65, 2.32, 2.82, 2.16, 2.84, 4.65, 5.81, 5.6, 5.6, 5.21, 5.21, 5.21, 5.21, 5.21, 5.29, 4.12, 3.45, 2.29, 1.76, 0.57, 0.54, 1.8, 3.43, 5.31, 5.51, 5.51, 6.57, 6.6, 6.9, 7.06, 6.45, 6.16, 6.28, 5.82, 7.28, 7.35, 9.04, 8.17, 7.82, 7.15, 6.73, 5.36, 4.34, 4.2, 5.72, 8.86, 11.65, 12.13, 8.95, 3.91, 2.99, 5.49, 7.82, 8.95, 10.1, 10.4, 10.19, 10.18, 9.89, 9.17, 8.85, 9.26, 9.56, 9.85, 9.26, 8.22, 7.59, 6.51, 5.78, 5.78, -3.56, -3.56, -3.37, -2.92, -2.26, -2.29, -1.76, -1.12, -1.14, 0.0, 0.53, 1.05, 1.7, 1.84, 2.36, 2.36, 2.36, 2.36, 2.36, 2.36, 2.36, 2.36, 2.36, 1.67, 1.67, 1.67, 1.8, 1.65, 1.65, 1.76, 1.76, 1.76, 2.82, 4.65, 5.81, 5.6, 5.21, 5.21, 5.21, 5.21, 5.21, 5.21, 5.29, 4.45, 4.12, 4.1, 2.8, 1.16, 1.8, 2.84, 5.31, 5.81, 5.31, 5.09, 5.02, 6.16, 6.52, 7.06, 6.88, 6.16, 5.15, 5.82, 6.21, 7.76, 7.42, 8.18, 6.11, 5.24, 4.26, 4.12, 4.34, 4.56, 4.4, 5.63, 7.49, 8.39, 8.25, 6.73, 6.0, 5.76, 6.18, 7.61, 8.82, 10.15, 8.9, 7.8, 7.8, 8.42, 8.85, 9.96, 9.56, 9.48, 9.48, 8.53, 7.44, 6.44, 5.28, 5.28, -3.56, -3.56, -3.37, -2.89, -2.23, -2.26, -1.73, -1.76, -1.12, -0.57, 0.0, 0.58, 1.14, 1.67, 1.67, 2.32, 2.32, 2.16, 2.36, 2.36, 2.36, 1.84, 1.84, 1.67, 1.67, 1.8, 1.65, 1.65, 1.76, 1.76, 1.18, 1.1, 2.32, 4.11, 5.6, 5.6, 5.21, 4.94, 4.94, 5.21, 5.21, 5.21, 4.94, 6.11, 6.45, 4.75, 3.47, 3.48, 5.08, 4.9, 5.6, 5.47, 5.08, 4.8, 4.4, 4.52, 6.64, 7.06, 6.16, 6.16, 6.21, 5.82, 6.18, 7.2, 7.15, 6.32, 5.24, 4.16, 3.55, 3.55, 5.24, 6.04, 5.14, 2.49, 1.7, 1.66, 3.98, 6.42, 6.6, 6.08, 6.31, 7.51, 9.3, 8.82, 8.01, 6.53, 5.95, 7.78, 9.26, 9.17, 8.76, 8.3, 8.01, 8.09, 7.36, 5.86, 5.18, 5.18, -3.8, -3.8, -3.56, -2.89, -2.89, -2.23, -1.71, -1.73, -1.1, -0.56, 0.0, 0.57, 1.12, 1.8, 1.8, 1.8, 1.8, 1.8, 1.67, 2.36, 1.84, 1.84, 1.84, 1.84, 1.67, 1.67, 1.8, 1.65, 1.76, 1.1, 1.18, 0.56, 1.8, 3.83, 5.21, 5.21, 5.21, 4.71, 4.71, 4.94, 5.21, 5.21, 5.01, 4.71, 4.74, 5.53, 5.69, 5.21, 5.75, 5.58, 5.01, 4.55, 4.55, 4.8, 4.27, 4.11, 4.11, 3.88, 5.6, 5.6, 5.58, 5.82, 6.11, 6.11, 5.89, 5.59, 5.69, 5.03, 3.63, 3.79, 5.82, 6.95, 7.38, 4.98, 0.0, -0.8, 0.0, 3.25, 6.6, 7.93, 7.9, 8.22, 8.56, 7.87, 6.27, 5.89, 6.2, 7.52, 7.85, 7.8, 7.36, 7.12, 6.77, 7.38, 6.53, 5.86, 5.18, 5.18, -4.0, -4.0, -3.35, -2.86, -2.89, -2.37, -1.71, -1.71, -1.09, -0.55, 0.0, 0.0, 1.12, 1.65, 1.65, 1.76, 1.65, 1.8, 2.16, 2.16, 2.36, 2.16, 1.67, 1.67, 1.67, 1.67, 1.8, 1.65, 1.76, 1.1, 1.1, 1.12, 2.32, 4.12, 4.71, 4.65, 4.65, 4.71, 4.71, 4.71, 4.71, 5.01, 5.01, 4.37, 4.11, 4.42, 5.24, 5.35, 4.74, 4.43, 4.07, 4.0, 4.0, 4.27, 4.27, 3.88, 3.72, 3.35, 3.35, 4.54, 5.21, 5.49, 5.24, 5.1, 5.1, 4.95, 5.77, 6.7, 6.13, 5.6, 5.6, 6.82, 7.64, 7.53, 4.07, 0.0, 0.0, 2.59, 6.56, 8.86, 9.02, 8.85, 7.59, 6.04, 5.36, 5.44, 6.34, 8.16, 7.36, 6.87, 6.29, 5.77, 5.77, 5.77, 5.77, 5.3, 4.2, 4.2, -4.0, -4.0, -3.52, -3.35, -2.86, -2.21, -2.21, -1.81, -1.16, -0.58, 0.0, 0.0, 0.56, 1.2, 1.2, 1.76, 1.76, 2.32, 2.32, 2.32, 2.32, 2.32, 2.32, 1.67, 1.67, 1.67, 1.67, 1.8, 1.75, 1.65, 1.8, 2.32, 2.8, 3.47, 4.12, 4.11, 4.37, 4.37, 4.71, 4.71, 4.71, 4.71, 4.71, 4.71, 3.83, 3.22, 3.47, 3.47, 3.49, 3.49, 3.48, 3.78, 3.72, 3.72, 3.43, 3.43, 3.43, 2.84, 2.84, 3.43, 4.43, 5.06, 4.26, 4.83, 5.1, 4.65, 5.21, 6.13, 5.93, 5.36, 5.6, 5.15, 5.21, 7.28, 7.4, 4.1, 1.69, 3.32, 5.86, 6.69, 7.29, 7.38, 5.9, 4.68, 4.54, 6.33, 7.61, 8.24, 7.63, 5.99, 5.2, 5.3, 5.09, 5.3, 5.0, 4.31, 3.7, 3.7, -4.0, -4.0, -4.0, -3.52, -2.86, -2.86, -2.21, -1.69, -1.14, -0.58, 0.0, 0.0, 0.59, 0.56, 1.1, 1.76, 2.29, 2.29, 2.29, 2.14, 2.32, 2.32, 2.32, 2.32, 1.8, 1.8, 1.67, 1.8, 1.65, 2.54, 2.32, 2.8, 3.0, 3.0, 2.8, 3.83, 4.37, 4.37, 4.71, 4.43, 4.71, 4.94, 4.94, 4.43, 3.84, 3.04, 2.36, 2.18, 2.86, 3.16, 3.43, 4.0, 3.43, 3.43, 3.43, 3.78, 3.48, 3.16, 3.16, 3.78, 4.07, 5.24, 6.64, 5.24, 6.01, 6.11, 5.15, 5.2, 5.36, 5.06, 4.74, 3.47, 2.64, 3.29, 5.56, 7.49, 5.67, 5.06, 4.48, 4.24, 4.31, 4.38, 4.39, 4.58, 5.7, 7.61, 8.54, 7.85, 7.13, 5.6, 4.87, 4.31, 4.4, 4.4, 4.4, 3.88, 3.51, 3.51, -4.44, -4.44, -4.0, -3.52, -3.35, -2.86, -2.33, -1.69, -1.69, -1.16, -0.58, 0.0, 0.0, 0.59, 1.63, 1.63, 2.29, 2.29, 2.29, 2.29, 2.29, 2.14, 2.14, 2.32, 1.65, 1.8, 1.8, 1.8, 1.8, 1.65, 2.29, 2.29, 2.29, 2.29, 2.49, 3.47, 4.11, 4.37, 4.37, 4.43, 4.43, 4.94, 5.29, 4.74, 4.12, 2.8, 2.82, 2.86, 3.15, 3.43, 4.0, 4.0, 4.37, 4.37, 4.07, 3.73, 3.79, 3.79, 3.48, 3.73, 6.63, 6.63, 6.32, 6.64, 6.45, 6.45, 6.18, 5.58, 5.01, 4.74, 4.29, 2.8, 1.32, 1.76, 3.98, 8.02, 9.13, 7.2, 3.78, 2.18, 1.5, 2.88, 4.4, 6.36, 7.36, 7.89, 7.85, 6.72, 6.2, 5.29, 4.68, 4.25, 3.7, 3.7, 3.8, 4.28, 3.51, 3.51, -4.66, -4.66, -4.0, -3.52, -3.35, -2.86, -2.33, -2.21, -1.69, -1.07, -0.58, 0.0, 0.0, 0.55, 1.09, 1.73, 2.26, 2.26, 2.26, 2.29, 2.29, 2.29, 2.29, 1.76, 1.65, 1.65, 1.65, 1.65, 1.8, 1.65, 1.65, 1.65, 1.65, 1.76, 2.29, 3.04, 3.83, 4.37, 4.37, 4.71, 4.43, 4.94, 5.01, 4.45, 3.85, 3.47, 3.49, 3.49, 3.48, 4.0, 4.55, 4.65, 4.65, 4.65, 4.65, 4.41, 4.11, 4.11, 4.11, 4.71, 5.21, 7.44, 6.32, 6.64, 6.64, 6.32, 5.37, 4.74, 4.43, 4.29, 4.36, 3.68, 2.82, 2.59, 4.0, 7.46, 9.98, 9.76, 7.2, 4.21, 2.39, 3.61, 5.95, 7.36, 7.28, 6.94, 6.5, 6.2, 5.67, 5.48, 4.87, 3.78, 3.32, 3.09, 3.0, 2.9, 2.9, 2.9, -4.66, -4.66, -4.0, -4.0, -3.35, -2.86, -2.33, -2.21, -1.69, -1.14, -0.58, 0.0, 0.0, 0.58, 0.55, 1.18, 1.73, 1.73, 1.73, 1.63, 1.76, 1.76, 1.76, 1.76, 1.76, 1.65, 1.65, 1.65, 1.65, 1.65, 1.65, 1.65, 1.65, 1.65, 1.65, 2.8, 3.49, 4.11, 4.37, 4.37, 4.71, 4.71, 5.01, 4.12, 3.84, 3.84, 3.83, 3.49, 4.07, 4.93, 5.21, 5.21, 4.94, 4.71, 4.71, 4.37, 4.11, 4.43, 4.71, 4.94, 5.58, 5.29, 6.32, 5.24, 5.1, 5.21, 4.58, 4.29, 4.29, 4.29, 4.75, 4.95, 4.44, 3.51, 3.19, 5.86, 8.86, 11.28, 10.72, 8.06, 5.89, 5.86, 6.62, 6.77, 6.67, 6.57, 6.52, 6.31, 5.48, 5.29, 5.2, 3.95, 3.45, 3.33, 2.88, 2.35, 2.99, 2.99, -4.66, -4.66, -4.0, -4.0, -3.35, -2.86, -2.86, -2.21, -1.69, -1.14, -0.54, 0.0, 0.0, 0.0, 0.55, 1.09, 1.18, 1.18, 1.73, 1.63, 1.63, 1.63, 1.63, 1.76, 1.76, 1.76, 1.65, 1.65, 1.65, 1.65, 1.65, 1.65, 1.65, 1.65, 1.65, 2.32, 3.49, 4.11, 4.65, 4.11, 4.11, 4.71, 4.74, 5.24, 4.43, 4.12, 4.12, 4.11, 5.21, 5.75, 5.58, 4.94, 4.71, 4.71, 4.71, 4.11, 4.12, 4.12, 4.71, 5.29, 5.75, 6.13, 6.32, 5.24, 5.1, 4.96, 4.58, 5.06, 5.06, 5.06, 5.77, 6.01, 4.88, 3.39, 2.49, 3.25, 5.93, 7.32, 8.07, 8.68, 8.83, 8.1, 7.44, 6.67, 6.57, 6.79, 5.9, 5.38, 5.48, 5.6, 5.2, 4.8, 4.71, 4.29, 3.22, 2.35, 2.99, 2.31, -4.66, -4.66, -4.0, -3.8, -3.35, -2.86, -2.86, -2.21, -1.69, -1.14, -0.54, -0.58, 0.0, 0.0, 0.55, 0.55, 0.55, 1.18, 1.18, 1.18, 1.1, 1.63, 1.63, 1.63, 1.76, 1.76, 1.76, 1.65, 1.65, 1.65, 1.65, 1.65, 1.65, 1.65, 1.76, 1.65, 2.82, 3.79, 4.41, 4.11, 4.11, 4.11, 4.37, 6.11, 4.45, 4.12, 4.12, 5.21, 5.75, 5.49, 5.29, 4.71, 4.71, 4.12, 3.83, 4.11, 3.83, 4.12, 4.71, 4.94, 5.58, 5.75, 7.21, 5.24, 5.24, 5.59, 6.01, 6.11, 6.11, 6.44, 6.82, 6.87, 4.88, 4.13, 4.17, 2.59, 1.76, 1.65, 4.37, 7.3, 8.51, 8.93, 7.93, 7.03, 6.79, 6.48, 5.9, 5.38, 5.29, 5.4, 5.72, 6.2, 6.24, 4.95, 3.33, 2.9, 2.9, 2.99, -4.0, -4.0, -4.0, -3.35, -3.35, -2.86, -2.33, -2.21, -1.69, -1.14, -1.14, -0.54, 0.0, 0.0, 0.0, 0.55, 0.55, 0.55, 1.18, 1.18, 1.18, 1.18, 1.18, 1.63, 1.63, 1.76, 1.76, 1.76, 1.65, 1.65, 1.65, 1.65, 1.65, 1.65, 1.76, 1.76, 2.36, 3.49, 4.07, 4.07, 4.11, 4.11, 3.79, 4.11, 5.24, 4.12, 4.43, 5.29, 5.29, 5.01, 4.43, 4.43, 4.12, 4.12, 3.49, 3.49, 3.49, 4.12, 4.71, 4.71, 5.21, 5.75, 4.71, 6.32, 6.32, 6.32, 6.45, 6.01, 6.79, 6.79, 6.44, 5.69, 4.96, 5.69, 7.19, 5.72, 3.39, 1.63, 3.23, 5.9, 7.84, 8.29, 7.29, 6.4, 5.9, 5.9, 5.11, 5.38, 5.6, 5.72, 6.09, 6.2, 6.14, 5.1, 4.03, 3.27, 4.28, 2.9, -4.0, -4.0, -4.0, -3.35, -3.35, -2.86, -2.21, -2.21, -1.69, -1.69, -1.14, -0.54, 0.0, 0.0, 0.0, 0.0, 0.0, 0.55, 1.09, 1.09, 1.18, 1.18, 1.18, 1.18, 1.1, 1.63, 1.63, 1.76, 1.76, 1.65, 1.65, 1.65, 1.65, 1.65, 1.1, 1.1, 1.67, 2.84, 4.07, 4.07, 3.79, 3.49, 3.49, 3.49, 3.49, 5.24, 4.74, 4.74, 4.74, 4.12, 4.12, 4.12, 4.12, 3.47, 3.47, 3.49, 3.49, 4.11, 4.11, 4.37, 5.01, 5.21, 7.44, 6.63, 6.98, 6.64, 6.01, 7.21, 6.82, 6.79, 6.79, 5.37, 4.75, 5.72, 7.95, 9.77, 8.86, 6.52, 5.8, 7.49, 8.68, 8.65, 7.4, 5.99, 5.11, 4.31, 4.55, 5.6, 5.4, 5.72, 5.63, 5.52, 4.6, 4.12, 4.12, 5.76, 6.42, 6.42, -4.0, -4.0, -4.0, -3.35, -2.86, -2.86, -2.33, -2.21, -1.69, -1.69, -1.14, -0.54, -0.54, 0.0, 0.0, 0.0, 0.0, 0.58, 0.58, 1.09, 1.09, 1.09, 1.18, 1.18, 1.1, 1.1, 1.1, 1.63, 1.76, 1.76, 1.65, 1.65, 1.65, 1.76, 1.1, 1.1, 1.12, 2.18, 3.49, 4.07, 4.07, 3.49, 3.49, 3.49, 2.84, 3.47, 4.12, 4.12, 3.47, 3.76, 3.49, 3.49, 3.47, 3.47, 3.47, 3.84, 3.49, 4.11, 4.11, 4.11, 4.65, 4.65, 4.65, 6.63, 6.63, 6.32, 6.64, 6.32, 6.44, 6.79, 5.69, 5.06, 4.75, 5.69, 6.69, 8.23, 9.8, 10.6, 9.92, 9.77, 9.42, 9.41, 8.56, 6.42, 5.11, 4.93, 4.75, 5.72, 5.4, 5.51, 4.8, 4.71, 4.12, 5.1, 7.27, 7.9, 7.9, 7.9, -4.0, -4.0, -3.52, -3.35, -2.86, -2.86, -2.33, -2.21, -1.69, -1.69, -1.14, -0.54, -0.54, 0.0, 0.0, 0.0, 0.0, 0.0, 0.58, 0.58, 0.58, 0.55, 0.55, 1.18, 1.18, 1.1, 1.1, 1.1, 1.2, 1.76, 1.2, 1.2, 1.2, 1.1, 1.1, 1.1, 1.12, 1.67, 2.84, 3.79, 4.07, 3.49, 3.49, 3.22, 3.49, 3.22, 3.47, 3.47, 3.47, 3.47, 3.49, 3.49, 3.47, 3.47, 4.12, 3.84, 4.12, 3.83, 4.11, 4.11, 4.41, 4.29, 4.93, 6.9, 6.63, 6.32, 6.64, 7.21, 6.45, 6.01, 4.95, 5.06, 5.37, 5.59, 4.96, 5.76, 7.25, 9.8, 10.86, 11.19, 10.59, 10.91, 10.23, 8.87, 6.4, 5.1, 5.51, 5.51, 4.87, 4.68, 4.6, 4.83, 4.71, 7.35, 7.97, 7.9, 7.9, 7.9, -4.0, -4.0, -3.52, -3.35, -2.86, -2.86, -2.86, -2.21, -2.21, -1.69, -1.14, -1.14, -0.54, -0.54, 0.0, 0.0, 0.0, 0.0, 0.0, 0.58, 0.58, 0.58, 0.58, 1.09, 1.18, 1.18, 1.1, 1.1, 1.1, 1.1, 1.2, 1.1, 1.1, 1.1, 1.1, 1.1, 1.2, 1.12, 2.18, 3.12, 3.49, 3.79, 3.49, 3.49, 3.49, 3.22, 3.47, 3.47, 3.47, 3.47, 3.76, 3.47, 3.47, 3.47, 3.84, 4.12, 3.84, 3.83, 4.11, 4.11, 4.11, 4.07, 4.37, 4.93, 6.98, 6.32, 5.59, 5.24, 6.01, 5.69, 5.69, 5.77, 6.11, 5.1, 4.96, 5.06, 5.63, 6.65, 9.25, 10.83, 11.37, 11.65, 10.99, 9.99, 8.51, 6.48, 5.2, 4.68, 3.95, 4.71, 5.92, 6.24, 6.64, 7.68, 7.48, 7.18, 7.18, 7.18, -4.0, -4.0, -4.0, -3.52, -3.35, -2.86, -2.86, -2.21, -2.21, -1.69, -1.14, -1.14, -0.54, -0.54, 0.0, 0.0, 0.0, 0.0, 0.0, 0.58, 0.58, 0.58, 0.58, 1.16, 1.18, 1.18, 1.18, 1.1, 1.1, 1.1, 1.1, 1.18, 0.59, 1.1, 1.1, 1.1, 0.56, 1.12, 1.67, 2.4, 3.49, 4.11, 3.49, 3.49, 3.22, 2.82, 3.04, 3.47, 3.47, 3.47, 3.47, 3.47, 3.47, 3.47, 3.84, 4.12, 4.12, 4.12, 3.83, 4.11, 4.11, 4.07, 4.37, 4.93, 5.21, 6.32, 5.59, 5.37, 6.11, 6.11, 6.11, 6.39, 6.01, 5.1, 4.96, 4.83, 4.8, 5.72, 7.38, 9.24, 10.43, 10.6, 10.35, 10.23, 9.55, 7.08, 5.1, 4.4, 5.21, 7.27, 8.24, 7.59, 6.95, 7.27, 7.48, 7.48, 7.48, 7.48, -4.0, -4.0, -4.0, -3.52, -3.35, -2.86, -2.86, -2.21, -2.21, -1.69, -1.14, -1.14, -0.57, -0.57, 0.0, 0.0, 0.0, 0.0, 0.0, 0.0, 0.58, 0.58, 0.58, 0.58, 1.09, 1.18, 1.18, 1.18, 1.18, 1.18, 0.59, 0.59, 0.56, 0.56, 0.56, 1.1, 1.1, 1.2, 1.12, 2.16, 3.08, 3.49, 3.49, 3.49, 3.22, 3.04, 3.04, 2.8, 3.47, 3.47, 3.47, 3.47, 3.47, 3.72, 3.47, 3.47, 4.12, 4.12, 4.12, 3.83, 4.11, 3.79, 4.07, 4.55, 5.21, 6.63, 6.63, 6.63, 7.44, 6.79, 6.79, 6.39, 5.89, 5.49, 5.21, 5.06, 5.52, 6.45, 7.24, 8.3, 9.11, 9.42, 10.48, 10.66, 9.58, 6.42, 5.0, 5.38, 6.95, 7.24, 6.94, 6.57, 6.83, 6.88, 7.36, 7.9, 7.9, 7.9, -4.0, -4.0, -4.0, -3.52, -3.35, -2.86, -2.86, -2.21, -2.21, -1.69, -1.14, -1.14, -0.57, -0.57, 0.0, 0.0, 0.0, 0.0, 0.0, 0.0, 0.58, 0.58, 0.58, 0.58, 1.09, 1.18, 0.59, 0.59, 0.59, 0.55, 0.55, 0.59, 0.56, 0.56, 0.56, 1.1, 1.1, 1.2, 1.76, 1.65, 2.32, 3.49, 3.49, 3.49, 3.22, 3.04, 2.8, 2.8, 3.22, 3.22, 3.47, 3.47, 3.47, 3.45, 3.72, 3.47, 4.12, 4.12, 4.12, 4.12, 3.83, 4.11, 4.07, 4.55, 4.93, 6.63, 7.07, 8.0, 7.44, 6.11, 6.01, 6.32, 6.18, 6.04, 6.53, 6.14, 6.42, 6.57, 7.24, 7.78, 7.63, 8.06, 10.73, 11.74, 10.48, 6.6, 5.18, 6.64, 7.8, 6.53, 6.45, 6.98, 7.48, 7.48, 8.12, 8.27, 8.27, 8.27, -4.0, -4.0, -3.52, -3.35, -3.35, -2.86, -2.86, -2.21, -1.69, -1.69, -1.14, -1.14, -0.57, -0.57, 0.0, 0.0, 0.0, 0.0, 0.0, 0.0, 0.0, 0.58, 0.58, 0.58, 0.58, 0.55, 0.55, 0.55, 0.55, 0.55, 0.55, 0.55, 0.59, 0.56, 0.56, 1.1, 1.63, 1.63, 1.63, 1.63, 2.29, 2.8, 3.22, 3.49, 3.22, 3.04, 2.8, 2.8, 2.8, 3.0, 2.8, 3.47, 3.45, 3.45, 3.45, 4.12, 4.12, 4.12, 4.12, 4.12, 4.12, 4.11, 4.07, 4.55, 4.55, 5.82, 5.82, 6.18, 6.55, 6.11, 6.11, 6.45, 7.06, 6.95, 6.53, 6.83, 6.42, 7.18, 7.36, 7.24, 6.33, 7.25, 9.39, 11.16, 9.8, 7.21, 8.3, 8.53, 7.93, 7.19, 7.09, 8.53, 8.85, 9.17, 8.85, 8.6, 8.6, 8.6, -4.0, -4.0, -3.35, -3.35, -2.86, -2.86, -2.33, -2.21, -1.69, -1.69, -1.14, -1.14, -0.57, -0.57, 0.0, 0.0, 0.0, 0.0, 0.0, 0.0, 0.0, 0.0, 0.58, 0.58, 0.58, 0.58, 0.0, 0.0, 0.0, 0.0, 0.0, 0.55, 0.59, 0.59, 1.18, 1.1, 1.63, 1.63, 1.73, 1.73, 1.73, 2.29, 3.04, 2.82, 2.82, 3.04, 2.8, 2.8, 2.8, 3.0, 3.0, 3.0, 3.45, 3.42, 4.1, 4.12, 4.12, 3.85, 3.85, 4.12, 3.84, 4.12, 4.11, 4.07, 4.55, 5.58, 5.82, 6.18, 6.44, 6.55, 6.11, 6.11, 5.37, 5.89, 6.64, 6.53, 7.27, 7.18, 6.57, 5.86, 5.86, 5.86, 6.56, 7.27, 7.42, 7.44, 7.85, 7.8, 7.93, 8.73, 9.48, 9.85, 9.48, 9.8, 9.48, 8.53, 8.53, 8.53, -4.0, -3.8, -3.35, -3.35, -2.86, -2.86, -2.21, -2.21, -1.69, -1.69, -1.14, -1.14, -0.57, -0.57, 0.0, 0.0, 0.0, 0.0, 0.0, 0.0, 0.0, 0.0, 0.0, 0.0, 0.0, 0.0, 0.0, 0.0, 0.0, 0.0, 0.0, 0.55, 0.55, 1.18, 1.18, 1.18, 1.73, 1.63, 1.73, 1.73, 1.73, 1.63, 2.32, 2.82, 2.82, 3.04, 2.8, 2.32, 2.32, 2.49, 3.0, 3.0, 3.45, 3.84, 4.1, 4.1, 4.1, 4.1, 4.1, 4.1, 4.12, 4.12, 4.11, 4.11, 4.65, 4.55, 5.75, 6.21, 6.8, 6.82, 6.79, 6.01, 6.45, 6.11, 6.32, 6.64, 7.27, 6.42, 5.52, 4.8, 5.63, 5.63, 4.01, 3.95, 5.94, 7.25, 7.28, 6.62, 7.36, 9.1, 10.12, 10.12, 9.7, 9.4, 8.66, 8.12, 8.12, 8.12, -4.03, -4.03, -3.56, -3.56, -2.86, -2.71, -2.21, -2.21, -1.69, -1.69, -1.14, -1.14, -0.57, -0.57, -0.57, 0.0, 0.0, 0.0, 0.0, 0.0, 0.0, 0.0, 0.0, 0.0, 0.0, 0.0, 0.0, 0.0, 0.0, 0.0, 0.0, 0.55, 0.55, 1.09, 1.16, 1.09, 1.18, 1.63, 1.63, 1.73, 1.73, 1.73, 1.76, 2.32, 2.36, 2.36, 2.32, 2.32, 2.32, 2.29, 2.29, 2.77, 2.77, 3.42, 3.84, 3.84, 4.1, 4.1, 4.1, 4.1, 4.12, 4.12, 4.12, 4.11, 4.65, 4.93, 5.75, 6.16, 6.21, 6.82, 6.44, 6.79, 6.73, 7.15, 6.79, 6.73, 6.53, 5.9, 4.92, 5.52, 5.76, 5.51, 4.06, 2.43, 4.35, 5.8, 5.77, 5.86, 7.15, 8.85, 10.12, 10.07, 9.6, 8.84, 8.18, 7.24, 7.24, 7.24, -4.03, -4.03, -3.56, -3.56, -2.89, -2.89, -2.37, -2.21, -1.69, -1.69, -1.69, -1.14, -1.14, -0.57, -0.57, -0.57, -0.57, -0.57, -0.57, -0.57, 0.0, 0.0, 0.0, 0.0, 0.0, 0.0, 0.0, 0.0, 0.0, 0.0, 0.0, 0.58, 0.55, 1.16, 1.16, 1.16, 1.18, 1.1, 1.63, 1.73, 1.18, 1.73, 1.73, 1.76, 2.32, 2.16, 2.16, 2.16, 1.8, 2.32, 2.29, 2.29, 2.77, 3.42, 3.42, 3.42, 3.42, 3.68, 4.1, 4.1, 4.39, 4.45, 4.42, 4.43, 4.65, 4.93, 5.2, 5.31, 6.21, 6.18, 5.77, 6.44, 6.73, 6.73, 6.73, 6.73, 6.53, 6.42, 6.7, 6.7, 6.57, 6.56, 4.88, 5.6, 5.02, 4.5, 4.71, 6.05, 7.52, 8.85, 9.43, 9.66, 8.72, 8.31, 7.25, 6.97, 6.97, 6.97, -4.03, -4.03, -3.56, -3.37, -2.89, -2.89, -2.37, -2.37, -2.37, -1.69, -1.69, -1.69, -1.14, -1.14, -1.14, -1.14, -1.14, -0.57, -0.57, -0.57, -0.57, -0.57, -0.57, 0.0, 0.0, 0.0, 0.0, 0.0, 0.0, 0.0, 0.58, 0.58, 1.16, 0.58, 0.58, 1.16, 1.18, 1.1, 1.1, 1.18, 1.09, 1.09, 1.73, 1.76, 1.65, 1.8, 1.67, 1.67, 1.67, 1.67, 1.8, 2.14, 2.77, 2.77, 2.96, 3.42, 3.42, 3.68, 4.1, 3.85, 4.12, 4.12, 4.45, 4.43, 4.71, 5.21, 5.08, 5.08, 6.21, 5.82, 6.18, 6.11, 6.45, 6.73, 6.73, 6.01, 6.64, 7.27, 7.48, 7.08, 7.36, 6.33, 7.27, 9.93, 8.2, 5.63, 5.76, 6.7, 7.85, 8.79, 9.43, 9.3, 8.61, 8.18, 7.01, 6.2, 6.2, 6.2, -4.03, -4.03, -3.56, -3.37, -3.37, -2.89, -2.89, -2.37, -2.37, -2.21, -2.21, -1.69, -1.69, -1.69, -1.69, -1.14, -1.14, -1.14, -1.14, -0.57, -0.57, -0.57, 0.0, 0.0, 0.0, 0.0, 0.0, 0.0, 0.0, 0.0, 0.58, 0.54, 0.54, 0.54, 0.58, 1.16, 1.18, 1.1, 1.1, 1.18, 1.16, 1.09, 1.18, 1.1, 1.76, 1.65, 1.67, 1.67, 1.67, 1.67, 1.67, 1.8, 2.32, 2.49, 2.77, 2.77, 3.21, 3.45, 3.45, 3.85, 4.12, 4.12, 4.45, 4.74, 4.71, 5.21, 5.21, 5.47, 5.47, 5.82, 6.18, 6.11, 6.44, 6.39, 6.73, 5.59, 5.1, 6.24, 6.42, 6.31, 6.57, 6.43, 7.93, 9.63, 10.92, 8.43, 7.22, 7.9, 8.85, 9.1, 9.08, 9.58, 8.68, 8.06, 7.38, 6.31, 6.31, 6.31, -4.03, -4.03, -4.03, -3.37, -3.37, -2.89, -2.89, -2.89, -2.89, -2.21, -2.21, -2.21, -1.69, -1.69, -1.69, -1.69, -1.14, -1.14, -1.14, -0.57, -0.57, -0.57, 0.0, 0.0, 0.0, 0.0, 0.0, 0.0, 0.0, 0.0, 0.54, 0.54, 0.57, 0.54, 0.58, 0.58, 1.09, 1.1, 1.1, 1.18, 1.16, 1.16, 1.18, 1.1, 1.1, 1.2, 1.12, 1.14, 1.67, 1.67, 1.67, 1.8, 2.32, 2.32, 2.32, 3.0, 3.0, 3.45, 3.45, 3.72, 3.72, 4.12, 4.12, 4.45, 4.71, 4.94, 5.21, 5.21, 5.47, 6.21, 6.18, 6.55, 6.79, 6.73, 6.32, 5.89, 5.1, 5.1, 5.76, 5.64, 5.41, 5.51, 6.31, 7.91, 10.46, 10.47, 8.73, 9.53, 10.15, 10.12, 9.66, 9.12, 8.68, 8.06, 7.38, 6.7, 6.7, 6.7, -4.03, -4.03, -3.56, -3.37, -3.37, -3.37, -2.89, -2.89, -2.89, -2.21, -2.21, -2.21, -2.21, -1.69, -1.69, -1.69, -1.14, -1.14, -1.14, -0.57, -0.57, -0.57, -0.57, -0.57, 0.0, 0.0, 0.0, 0.0, 0.0, 0.0, 0.0, 0.0, 0.0, 0.54, 0.58, 0.58, 0.55, 0.56, 0.56, 0.59, 0.58, 1.16, 1.09, 1.18, 1.1, 1.1, 1.1, 1.12, 1.67, 1.67, 1.67, 2.32, 2.32, 2.32, 2.32, 2.32, 2.8, 2.8, 2.8, 3.47, 3.47, 4.12, 4.12, 4.45, 4.74, 4.71, 4.71, 5.21, 4.84, 6.21, 6.18, 6.18, 6.11, 6.39, 6.32, 6.64, 5.76, 5.1, 4.71, 4.71, 4.6, 4.68, 5.6, 6.47, 9.05, 9.92, 10.34, 10.81, 10.75, 10.7, 10.01, 9.23, 8.68, 8.06, 7.12, 5.64, 5.64, 5.64, -3.56, -3.56, -3.56, -3.37, -3.37, -3.37, -2.89, -2.71, -2.86, -2.33, -2.33, -2.33, -2.33, -1.78, -1.69, -1.69, -1.14, -1.14, -0.57, -0.57, -0.57, -0.57, -0.57, -0.57, 0.0, 0.0, 0.0, 0.0, 0.0, 0.0, 0.0, 0.0, 0.0, 0.0, 0.58, 0.58, 0.55, 0.59, 0.56, 0.56, 0.55, 0.58, 1.16, 1.18, 1.18, 1.09, 1.18, 1.1, 1.65, 1.8, 1.8, 2.29, 2.29, 2.29, 2.29, 2.32, 2.8, 2.8, 2.8, 3.04, 3.47, 3.47, 4.12, 4.12, 4.74, 4.43, 4.71, 4.71, 4.71, 4.65, 5.01, 5.77, 6.11, 5.69, 5.59, 5.76, 4.83, 4.83, 4.0, 3.88, 4.25, 4.8, 5.72, 7.23, 8.83, 10.47, 10.65, 10.78, 11.74, 10.94, 10.23, 9.5, 9.02, 8.99, 7.51, 4.96, 4.96, 4.96, -3.35, -3.35, -3.35, -3.35, -2.86, -2.86, -2.86, -2.86, -2.33, -2.33, -2.33, -2.19, -1.67, -1.67, -1.78, -1.2, -1.2, -0.57, -0.57, -0.57, 0.0, 0.0, 0.0, 0.0, 0.0, 0.0, 0.0, 0.0, 0.0, 0.0, 0.0, 0.0, 0.0, 0.0, 0.0, 0.0, 0.55, 0.55, 0.55, 0.0, 0.0, 0.55, 0.58, 1.16, 1.16, 1.16, 1.16, 1.18, 1.63, 1.76, 1.76, 1.76, 2.26, 2.26, 2.96, 2.77, 3.0, 2.8, 2.8, 2.8, 3.04, 3.47, 3.47, 3.84, 4.12, 4.43, 4.43, 4.43, 4.71, 4.71, 4.71, 5.37, 5.69, 5.21, 5.1, 4.96, 4.83, 4.83, 4.83, 4.83, 4.71, 5.14, 6.45, 7.13, 8.96, 10.6, 11.59, 11.79, 11.74, 10.94, 10.65, 9.95, 9.5, 8.51, 7.36, 5.21, 5.21, 5.21, -3.35, -3.35, -3.35, -3.35, -2.86, -2.86, -2.86, -2.33, -2.19, -2.19, -1.67, -1.75, -1.67, -1.12, -1.12, -1.12, -0.56, -0.56, -0.56, 0.0, 0.0, 0.0, 0.0, 0.0, 0.0, 0.0, 0.0, 0.0, 0.0, 0.0, 0.0, 0.0, 0.0, 0.0, 0.0, 0.0, 0.0, 0.0, 0.0, 0.0, 0.55, 0.55, 0.58, 1.16, 1.16, 1.16, 1.16, 1.71, 1.73, 1.18, 1.73, 1.73, 2.26, 2.26, 2.75, 2.75, 2.96, 2.77, 3.0, 2.8, 2.8, 3.04, 3.47, 3.47, 4.12, 4.12, 4.74, 4.74, 4.74, 4.71, 4.71, 4.74, 4.45, 5.21, 5.1, 4.96, 5.76, 5.64, 5.76, 5.76, 5.38, 5.52, 5.63, 6.43, 9.12, 11.37, 12.23, 12.42, 12.42, 12.01, 11.59, 11.29, 9.95, 9.3, 7.44, 5.1, 5.1, 5.1, -3.35, -3.35, -3.35, -3.35, -2.86, -2.86, -2.86, -2.33, -2.19, -2.19, -1.67, -1.75, -1.67, -1.12, -1.12, -1.12, -0.56, -0.56, -0.56, 0.0, 0.0, 0.0, 0.0, 0.0, 0.0, 0.0, 0.0, 0.0, 0.0, 0.0, 0.0, 0.0, 0.0, 0.0, 0.0, 0.0, 0.0, 0.0, 0.0, 0.0, 0.55, 0.55, 0.58, 1.16, 1.16, 1.16, 1.16, 1.71, 1.73, 1.18, 1.73, 1.73, 2.26, 2.26, 2.75, 2.75, 2.96, 2.77, 3.0, 2.8, 2.8, 3.04, 3.47, 3.47, 4.12, 4.12, 4.74, 4.74, 4.74, 4.71, 4.71, 4.74, 4.45, 5.21, 5.1, 4.96, 5.64, 5.64, 5.76, 5.76, 5.38, 5.64, 5.76, 6.45, 7.79, 9.77, 12.33, 12.72, 12.33, 12.33, 12.33, 11.59, 10.83, 9.89, 8.22, 5.24, 5.24, 5.24]}]